GFSWCAN_prec_cthk_000.txt.gz
RH
60 63 65 72 76 82 87 86 88 85 85 86 89 90 90 90 85 80 84 76 67 64 49 52 53 52 51 47 45 50 60 70 74 71 71 63 57 56 53 46 56 68 78 84 71 53 44 44 39 35 38 42 42 39
64 69 73 80 83 84 86 88 86 86 86 95 95 92 95 95 88 82 86 80 72 69 51 55 46 40 44 46 47 53 67 71 80 80 74 74 69 63 62 69 56 68 74 76 75 64 56 51 49 46 43 39 40 40
58 65 77 83 86 85 84 86 87 91 94 97 98 97 97 96 88 85 87 84 73 65 50 45 31 31 37 40 45 57 70 72 77 70 78 79 78 70 69 68 66 69 64 73 73 66 61 55 51 50 48 45 44 45
59 62 75 82 89 84 85 88 90 95 96 96 97 98 97 90 83 82 88 84 70 58 57 41 33 37 43 36 45 48 59 70 69 71 75 72 72 70 71 72 74 74 69 65 72 71 66 60 58 55 52 50 52 51
58 61 70 82 92 87 85 94 95 96 97 97 97 93 90 95 84 85 82 73 60 56 56 41 35 41 40 37 43 43 52 64 61 66 71 67 69 68 71 77 79 79 75 61 58 58 58 61 73 67 64 60 59 56
70 67 69 85 92 89 89 95 96 97 98 91 96 90 94 92 87 74 79 68 50 50 55 52 50 47 43 38 38 48 41 54 63 62 60 67 66 68 75 80 78 82 77 70 59 54 55 59 61 66 63 59 57 52
86 84 81 94 95 89 94 97 97 98 90 88 91 89 95 90 81 73 85 79 57 56 56 60 61 52 41 32 31 34 43 47 56 55 61 73 62 79 76 87 88 82 76 74 68 63 64 65 65 64 63 58 55 54
87 88 91 94 92 90 93 96 96 95 87 87 85 84 84 86 75 72 75 75 63 58 65 69 64 48 36 36 35 30 35 42 46 53 54 71 82 86 92 89 88 84 80 80 80 79 80 79 73 69 59 50 49 48
91 93 96 93 93 96 94 92 91 90 83 81 79 83 79 76 70 75 77 70 66 67 73 81 74 58 41 41 43 42 41 42 45 59 67 70 83 98 95 87 86 83 81 79 78 77 74 68 62 57 53 47 41 39
92 94 92 94 96 93 93 88 87 83 79 78 78 87 86 78 62 58 65 59 56 60 68 81 69 64 48 57 59 52 47 46 52 59 62 75 92 94 94 90 84 76 70 66 60 56 54 52 49 46 43 37 30 26
93 92 91 92 92 94 90 88 84 80 80 82 88 87 81 70 63 60 63 68 70 65 75 77 65 64 61 70 69 61 55 50 60 67 66 82 92 92 87 83 81 74 67 61 56 51 45 39 35 32 29 28 28 30
89 89 86 89 89 91 91 88 85 87 92 89 83 75 75 73 69 73 72 74 79 73 78 73 67 68 64 66 67 60 57 53 56 65 69 78 84 84 76 68 65 60 54 49 44 40 37 36 36 35 34 32 31 30
84 81 80 87 91 94 92 88 91 93 86 84 81 77 77 75 85 84 82 83 77 76 74 69 67 73 64 60 58 65 67 61 69 81 88 86 78 73 65 59 55 50 49 48 46 45 44 43 38 33 32 32 31 29
77 78 85 88 91 92 95 94 90 85 87 86 83 82 84 95 93 92 91 86 81 79 72 68 70 74 70 63 65 74 68 68 80 95 97 94 85 77 68 65 63 62 59 51 48 46 44 43 42 40 38 34 34 34
76 78 80 85 88 89 90 89 87 83 81 79 81 97 98 98 98 91 85 83 83 78 75 73 71 72 74 75 70 71 77 85 92 98 93 93 91 85 81 78 76 68 63 59 56 53 50 45 41 39 41 45 45 42
76 77 79 80 82 86 85 84 81 82 78 86 93 98 96 93 92 85 82 79 78 79 75 71 67 66 72 78 83 92 84 98 96 96 93 88 86 82 77 72 67 63 56 50 48 45 45 45 44 43 44 49 54 54
70 73 70 68 74 79 81 81 79 77 80 95 96 93 91 88 86 87 84 76 72 68 73 68 67 62 65 80 85 87 95 97 94 92 91 88 79 72 63 60 58 56 57 53 49 46 48 47 47 48 49 56 61 65
60 66 70 67 69 78 82 80 78 82 92 97 89 85 79 73 75 75 78 70 63 62 64 67 66 68 71 78 83 79 76 71 67 66 65 65 64 61 57 57 58 61 61 55 50 51 49 48 48 50 49 53 54 55
56 58 60 62 63 71 75 76 78 79 80 81 79 77 76 70 65 60 60 58 57 54 62 72 70 72 71 66 65 64 63 62 62 61 62 63 62 63 61 59 58 58 60 55 51 51 49 48 47 46 47 45 44 42
49 51 53 54 55 58 62 65 65 63 64 64 60 58 56 55 55 55 54 52 50 49 51 57 61 58 57 60 61 61 62 61 60 61 64 67 67 65 63 65 65 63 59 54 53 53 51 46 41 40 38 36 39 39
42 43 43 43 46 49 52 54 53 50 51 50 49 50 51 52 53 54 52 51 56 62 66 63 62 57 53 49 52 56 56 58 61 64 66 69 67 68 72 73 66 65 66 61 59 58 57 52 47 44 44 43 42 42
47 43 40 39 39 42 43 43 44 47 47 49 51 53 51 51 53 51 52 49 52 54 52 50 47 44 45 53 58 61 60 60 62 65 66 68 69 73 82 80 74 70 66 62 59 56 52 46 45 46 46 46 47 47
79 74 68 66 62 59 57 55 52 52 53 52 50 50 54 53 49 46 50 57 59 62 65 66 65 64 66 68 72 76 75 73 76 76 75 74 77 81 82 81 79 73 63 55 49 48 47 47 48 50 51 51 52 53
83 84 85 87 89 88 86 87 86 86 79 72 73 73 68 64 71 83 85 84 82 82 84 87 87 85 86 84 83 80 76 74 69 69 70 74 74 75 73 68 58 51 49 48 46 45 42 40 39 38 39 41 43 46
74 78 79 80 78 81 85 87 93 96 97 98 96 92 93 93 94 94 94 89 87 87 85 84 86 83 81 79 68 59 57 55 52 50 52 53 52 52 49 47 47 47 47 47 44 40 36 36 36 38 40 40 40 41
67 67 73 72 68 68 69 75 76 77 77 80 84 87 89 93 86 88 90 88 83 82 78 69 61 55 53 52 52 51 51 50 50 49 48 48 49 49 50 50 52 54 55 54 51 46 44 43 42 40 38 38 39 37
69 68 65 61 63 63 64 66 70 71 72 70 72 77 77 76 80 77 70 63 61 60 59 57 54 52 54 54 53 53 52 50 47 45 44 44 45 46 46 46 46 44 42 40 37 36 37 37 38 40 41 42 42 42
69 66 65 60 59 60 64 63 63 66 68 71 74 71 66 64 63 60 58 56 57 60 60 61 62 63 64 63 62 60 55 47 42 41 40 41 43 44 44 44 42 40 37 36 36 38 40 41 42 44 46 46 47 48
74 67 63 61 64 65 66 66 65 61 61 64 61 64 66 65 66 63 61 60 62 66 69 70 71 72 72 69 67 62 54 48 45 44 44 44 44 44 43 42 41 42 43 44 47 48 50 52 54 56 57 59 60 61
75 74 70 68 73 76 75 73 70 74 73 72 73 72 73 75 78 76 74 75 79 78 77 76 76 75 73 68 61 53 49 46 43 42 42 44 45 46 47 47 47 48 49 51 53 54 55 56 56 55 55 55 55 56
76 80 71 72 74 73 73 71 73 76 79 80 81 80 81 84 86 85 84 86 89 86 82 80 77 76 67 58 52 47 44 43 45 47 47 46 44 44 44 47 49 51 53 54 54 54 53 51 50 49 48 48 48 48
65 70 76 75 71 68 66 67 69 76 82 85 94 93 90 96 98 97 97 95 93 90 85 81 75 65 54 51 48 45 45 46 45 44 45 47 49 52 54 55 55 54 52 50 49 47 46 46 46 47 48 49 50 51
54 55 57 64 65 66 72 78 84 83 88 94 97 98 99 97 96 94 92 78 71 68 65 60 57 54 52 48 43 43 45 47 49 51 52 52 50 48 46 46 46 46 45 44 45 47 49 51 53 54 55 56 58 60

GFSWCAN_prec_cthk_006.txt.gz
RH
58 64 70 70 65 68 75 79 85 91 89 91 88 87 88 89 87 89 94 96 95 90 81 81 76 70 62 71 72 62 61 68 67 77 68 56 52 48 44 52 53 48 48 49 58 66 57 50 45 46 51 41 32 28
62 68 65 73 82 73 67 76 90 94 90 90 92 94 91 91 95 98 95 95 97 89 82 78 67 63 52 52 67 66 65 75 67 82 79 75 67 68 51 49 62 60 52 52 53 47 53 54 51 55 52 47 42 38
65 69 69 77 86 82 76 82 96 90 91 93 95 93 92 94 97 97 97 98 95 92 83 69 58 50 44 47 56 63 62 68 82 77 76 85 86 69 63 66 58 59 60 52 49 49 46 48 50 56 61 56 51 49
59 63 78 91 91 86 84 94 87 89 94 93 93 93 95 96 96 97 98 97 97 97 83 60 49 47 44 49 46 56 62 77 84 79 84 85 84 76 72 66 74 66 56 54 54 50 49 58 66 73 67 64 59 56
56 76 86 85 85 90 91 90 93 94 92 92 93 93 93 93 98 98 97 95 97 92 70 55 49 48 45 47 55 64 69 78 88 88 97 85 72 72 75 77 77 73 72 60 55 53 57 68 69 75 69 63 63 57
72 78 83 86 87 88 90 93 94 93 93 89 89 94 95 98 95 92 88 96 88 72 63 62 56 61 61 56 67 72 72 88 84 87 93 91 68 74 87 85 77 77 74 76 70 67 69 77 84 81 71 67 61 62
67 75 80 82 86 89 91 94 93 90 87 85 88 92 95 94 90 85 95 88 62 60 80 85 72 70 74 73 73 73 74 76 79 82 87 96 85 85 85 85 78 79 82 84 80 78 83 84 86 82 78 74 66 64
67 72 79 81 82 83 84 83 82 84 83 85 84 82 85 84 85 92 88 68 65 92 93 89 85 83 70 70 72 72 62 70 74 74 87 97 95 91 92 88 84 87 92 92 92 90 90 91 90 89 82 75 68 72
67 71 73 75 78 78 78 79 76 77 79 78 78 78 78 81 83 82 74 81 89 97 96 95 89 86 69 64 67 69 61 76 74 81 96 92 96 96 94 91 90 88 92 95 95 92 92 90 91 86 75 73 65 68
65 68 69 72 73 72 74 75 73 75 74 78 80 79 79 66 66 75 78 80 95 93 90 84 80 81 75 64 63 64 68 77 88 92 91 95 97 96 93 90 89 92 95 94 92 90 92 92 90 88 81 80 69 64
70 67 68 69 73 75 79 80 79 75 71 70 70 72 70 67 75 80 85 95 95 87 84 87 88 85 77 80 76 75 77 77 87 85 93 95 97 98 96 94 91 85 86 90 88 87 82 81 73 71 68 66 63 58
69 70 72 75 78 79 73 70 71 74 72 72 71 71 71 76 78 84 90 93 95 88 89 90 90 83 81 76 79 73 72 69 77 83 88 97 97 97 97 96 94 93 92 91 90 86 77 68 64 62 59 54 46 42
67 67 68 72 75 73 72 76 74 72 70 77 80 79 78 73 81 86 90 89 93 87 85 87 86 83 78 75 74 68 63 73 75 83 93 98 97 95 94 95 92 91 90 88 79 74 68 61 53 52 53 48 43 43
62 63 64 68 74 75 77 76 75 74 84 87 89 89 86 84 84 85 84 83 80 82 78 82 85 83 76 71 66 68 69 72 78 78 91 97 91 94 91 88 84 81 81 78 72 66 58 55 50 48 50 50 48 46
56 58 61 63 63 71 78 80 84 84 91 97 98 99 98 92 85 78 75 75 72 73 71 72 75 72 72 73 69 68 70 88 96 92 91 91 89 92 92 90 87 83 76 71 64 60 54 51 49 50 53 54 53 52
52 54 54 53 57 63 72 74 76 75 84 93 96 97 95 91 87 84 80 76 73 71 74 72 72 70 68 72 75 85 86 93 97 98 96 93 91 88 83 81 77 76 68 64 60 55 52 49 46 46 51 53 54 57
46 53 50 48 46 51 61 66 70 73 77 83 88 85 84 82 82 79 79 76 71 73 70 66 81 81 80 86 97 97 97 98 98 97 97 94 88 86 83 79 69 66 69 67 59 53 52 49 45 43 41 37 38 42
40 41 42 43 43 45 50 55 60 65 73 74 76 75 70 72 77 76 75 72 68 67 69 72 76 82 89 94 95 97 96 96 94 91 84 84 82 79 74 69 63 61 61 58 52 49 41 41 41 42 41 37 44 45
32 33 33 34 34 35 42 41 45 51 55 61 61 60 59 59 61 71 73 73 74 72 71 71 73 84 92 92 89 88 86 85 82 74 70 73 72 71 71 70 62 62 55 52 49 48 46 45 43 44 47 45 45 47
26 27 28 27 30 36 39 39 41 46 47 52 56 57 55 52 51 55 61 64 65 60 64 69 78 79 78 73 68 67 66 66 76 74 74 75 60 60 61 58 59 63 60 55 52 51 50 48 48 48 49 51 50 49
46 41 36 32 34 39 41 44 45 47 50 52 52 55 57 57 59 58 54 51 51 51 55 60 62 65 66 64 65 66 66 68 79 83 79 67 62 60 60 63 63 62 62 62 62 62 57 53 52 53 53 53 52 51
70 69 68 62 57 51 52 52 50 49 51 53 51 49 49 49 53 56 64 60 63 63 61 63 63 72 72 69 65 60 63 68 75 78 74 72 68 68 68 66 66 66 67 70 71 66 59 53 50 46 43 42 42 45
67 71 75 69 73 79 87 80 59 54 53 55 67 73 77 85 85 87 82 78 73 76 74 81 85 84 84 85 83 80 78 80 81 80 84 83 78 74 69 65 63 60 58 56 54 52 49 46 44 41 41 41 43 45
57 59 66 77 78 78 80 82 79 88 93 88 90 94 92 88 85 84 90 96 94 94 93 90 88 82 73 61 52 50 49 50 51 54 53 50 53 52 51 51 51 50 50 49 48 47 45 45 44 44 43 42 45 46
51 53 59 64 65 65 69 72 78 81 83 85 87 86 90 91 88 91 93 90 84 81 76 69 62 58 56 55 53 54 54 54 53 53 53 51 51 50 52 50 48 47 46 46 46 45 42 40 41 43 42 43 43 44
61 66 67 64 67 70 71 70 71 74 73 72 70 71 75 78 75 82 83 85 76 64 64 64 65 65 66 67 66 64 62 60 58 56 54 51 51 52 53 54 56 57 52 50 48 47 47 47 49 52 56 56 55 55
63 65 69 71 75 74 71 70 68 69 68 68 64 62 61 63 68 73 72 71 69 71 75 76 77 77 76 77 74 70 66 61 60 57 54 50 47 46 49 50 52 52 50 50 48 52 53 52 54 57 59 61 62 62
69 67 74 77 80 77 77 76 73 71 70 71 72 74 78 83 86 86 85 84 85 84 83 84 84 84 84 83 82 79 71 63 61 57 54 52 52 52 52 50 52 49 51 51 52 53 52 54 55 56 57 56 55 58
73 72 75 76 75 75 72 72 74 77 79 82 84 86 88 92 91 89 88 89 91 92 94 95 92 86 80 73 66 58 54 49 48 48 50 51 54 57 56 55 54 53 52 51 50 47 45 43 44 45 46 49 51 52
65 70 71 71 70 77 82 83 83 82 81 83 87 93 95 97 98 97 97 96 95 92 89 80 72 61 53 48 46 47 50 51 51 51 55 56 55 55 52 49 47 46 45 44 44 45 45 44 48 52 53 54 54 55
60 64 67 68 73 64 62 65 72 75 77 77 80 81 83 80 84 80 71 62 59 59 56 53 54 53 52 51 52 51 50 51 51 50 47 46 44 43 42 41 41 41 44 46 49 52 53 53 53 53 55 56 58 59
51 56 58 57 56 55 61 71 75 73 70 64 61 63 66 70 74 72 62 55 58 60 60 59 59 58 55 51 50 48 46 47 42 40 37 37 38 41 45 49 51 52 50 49 50 50 51 52 53 55 56 59 61 63
45 44 41 42 42 38 46 63 71 76 66 59 66 71 70 69 74 73 61 61 64 65 65 63 56 50 47 45 43 42 41 42 43 44 45 46 47 48 51 49 46 46 46 50 50 51 52 54 56 59 61 64 67 71

GFSWCAN_prec_cthk_009.txt.gz
RH
40 44 50 56 64 77 77 74 69 78 96 95 91 91 91 90 92 87 90 93 91 90 80 81 79 85 83 84 78 95 68 68 80 78 70 59 54 46 45 43 34 31 35 39 45 46 45 53 50 52 56 52 48 43
39 44 52 65 75 76 76 76 77 89 96 89 90 90 94 92 89 89 90 90 95 98 82 81 79 80 82 78 75 78 81 88 82 80 80 83 83 73 52 51 39 36 33 39 43 41 53 55 56 52 44 41 42 43
46 55 62 66 66 73 77 84 90 85 85 89 92 91 91 90 90 91 96 96 93 96 79 80 77 76 69 59 57 72 69 83 81 87 87 84 94 92 73 56 47 47 46 46 60 65 65 60 58 58 50 52 49 45
52 59 66 69 71 77 77 80 86 90 89 88 89 91 93 94 95 96 98 97 98 95 92 81 76 69 60 54 53 62 79 78 82 82 82 87 91 94 84 78 79 82 77 57 65 76 63 60 59 41 44 52 50 58
51 59 64 67 72 75 80 85 87 86 87 87 88 88 91 91 93 96 98 96 98 99 85 69 62 55 49 46 55 52 62 74 79 84 90 89 88 90 85 95 95 96 91 88 78 63 55 55 48 50 52 61 60 65
53 59 64 67 69 73 80 80 81 83 81 78 83 90 93 97 93 97 98 98 95 91 79 70 62 56 62 50 57 62 69 80 83 93 93 91 84 84 97 96 92 89 93 90 84 66 55 56 55 55 58 67 68 71
55 58 61 64 68 73 73 73 77 76 78 80 82 82 87 90 91 97 95 84 66 77 82 77 83 72 76 65 67 72 74 76 84 96 86 90 83 92 93 95 90 88 85 79 69 67 65 65 68 65 62 62 65 67
53 56 59 63 66 67 71 74 72 73 71 73 77 77 78 83 86 81 78 75 83 93 95 91 82 83 71 74 69 71 71 75 91 94 87 88 91 90 90 89 89 89 85 81 77 76 75 75 75 76 71 74 76 73
51 54 58 64 66 69 70 71 71 71 70 72 75 77 73 75 78 79 79 89 93 96 93 97 98 94 76 82 77 69 69 72 85 82 93 98 97 96 89 84 86 87 86 85 84 84 86 89 89 93 90 87 83 78
54 57 62 68 70 70 69 69 69 65 63 63 71 77 80 74 69 82 94 98 94 97 95 86 82 84 83 71 66 65 68 75 80 93 96 95 97 97 93 89 88 90 90 91 92 93 94 95 93 96 93 87 85 80
55 58 60 62 66 70 68 65 66 66 68 73 76 79 80 81 90 97 94 93 93 90 89 87 85 79 78 81 78 82 93 81 94 98 97 96 97 98 95 95 94 95 95 91 91 94 88 92 93 91 90 89 82 83
51 58 66 73 76 73 67 62 62 64 69 68 71 71 77 88 93 92 92 95 94 98 97 90 83 82 82 86 90 82 83 93 90 96 95 97 98 98 96 93 90 86 88 89 87 87 87 87 88 86 85 80 80 74
46 51 58 65 67 73 79 81 68 62 68 71 69 73 80 87 98 94 97 96 96 92 94 82 76 76 76 89 88 92 74 87 84 94 97 97 95 98 96 93 91 89 87 83 84 84 80 80 80 79 72 67 63 64
41 45 50 56 61 65 70 71 78 78 76 78 80 82 85 90 87 86 90 83 86 80 84 77 72 77 74 75 78 69 86 84 87 96 97 97 96 96 94 88 86 88 86 84 82 77 72 68 63 66 67 70 64 62
37 38 41 47 52 57 60 65 73 79 81 87 89 89 87 90 91 88 82 76 71 73 80 75 73 70 68 70 74 77 81 94 90 95 97 93 94 92 90 88 86 80 80 83 74 70 67 63 61 56 59 60 59 63
37 42 43 41 42 46 52 59 70 82 85 90 91 94 87 85 76 74 76 69 67 81 74 77 70 77 78 79 84 90 93 99 97 98 97 94 91 86 88 89 84 77 75 69 71 68 61 61 60 58 57 55 54 58
31 38 35 35 35 37 41 53 69 76 78 79 77 74 78 79 77 72 69 67 72 74 71 72 81 86 82 87 94 98 97 98 96 96 97 95 93 90 91 89 87 79 78 76 68 65 69 64 53 50 46 44 50 48
26 26 27 28 26 28 39 46 61 64 65 64 64 66 71 73 75 72 68 65 69 71 70 75 79 81 86 95 96 97 97 98 95 93 92 90 91 89 87 87 85 85 78 72 65 68 64 63 56 54 52 54 61 52
23 23 26 28 27 30 37 40 50 60 59 59 58 57 71 76 79 74 71 65 66 66 63 69 80 89 90 92 92 93 94 94 93 88 86 83 83 85 80 78 79 75 65 57 55 57 54 51 52 52 52 53 54 55
42 35 31 29 32 37 42 43 46 51 55 59 59 59 58 62 65 67 67 63 61 59 61 70 71 72 72 76 80 83 88 92 92 89 81 79 70 68 67 64 62 63 63 63 58 57 57 56 53 52 49 46 46 47
60 56 47 43 46 47 45 46 49 47 50 59 55 55 56 57 56 59 64 56 58 68 71 76 78 74 73 75 74 74 74 78 84 86 83 74 66 62 63 66 66 64 64 65 66 65 64 63 58 53 49 48 46 45
61 57 64 66 58 50 49 45 44 43 49 54 67 69 72 68 63 60 62 64 78 90 95 92 89 86 81 79 76 78 84 83 85 88 87 87 83 78 75 70 67 63 59 56 51 50 52 53 52 48 46 44 45 49
58 62 57 63 67 68 72 71 70 78 72 80 77 75 81 91 84 89 87 93 93 92 91 86 83 81 77 69 59 55 52 56 63 63 64 65 60 57 56 57 56 54 54 53 51 51 49 46 47 44 47 43 43 48
48 52 53 56 64 73 74 75 76 78 77 80 82 86 87 91 91 90 93 94 93 87 78 73 68 64 57 53 52 50 50 51 52 56 55 52 56 59 57 57 56 55 51 50 49 48 46 45 42 44 46 45 45 46
51 55 60 65 64 71 74 73 70 69 70 70 74 76 81 86 82 83 87 86 78 63 63 64 65 65 64 62 59 56 53 52 55 56 59 56 57 59 60 64 62 62 53 52 52 49 48 50 51 52 53 52 53 53
62 63 70 68 66 64 63 66 72 74 73 70 64 66 69 70 68 75 76 74 74 74 75 76 78 76 75 73 72 71 69 70 72 71 68 61 58 56 55 54 51 55 53 51 48 46 47 47 48 52 53 54 55 56
69 74 77 71 69 75 78 74 71 71 71 73 74 77 79 83 90 87 87 87 87 86 85 84 84 85 83 79 75 69 60 54 52 52 55 59 57 51 52 53 54 54 52 53 53 50 51 50 48 48 48 49 52 53
67 70 77 80 81 75 75 73 73 74 74 76 83 84 88 93 95 92 93 92 89 87 89 91 87 82 76 66 55 46 44 44 45 47 48 56 59 58 57 54 52 47 47 47 44 45 44 42 39 42 43 44 45 48
78 72 76 82 82 79 81 84 80 78 76 75 76 78 78 81 89 89 86 84 81 73 67 67 66 66 60 53 50 52 53 54 52 50 49 53 54 53 49 47 46 44 43 43 44 43 41 42 43 44 48 50 52 53
67 68 74 72 74 76 68 63 64 61 55 51 52 57 62 65 62 61 62 59 58 58 60 61 61 59 55 52 53 52 54 51 50 46 43 45 44 43 43 42 42 42 44 46 47 48 47 43 47 47 48 49 51 50
57 54 61 65 58 58 64 68 70 62 49 51 58 60 63 67 75 73 65 63 63 64 65 63 59 51 44 40 41 41 40 43 41 39 36 38 39 41 44 48 49 48 47 44 42 45 45 46 48 50 52 54 56 57
52 53 52 54 58 56 62 70 72 69 55 58 64 65 71 80 83 73 66 63 63 60 52 43 37 36 37 37 40 42 41 47 48 46 45 43 44 45 45 42 41 45 44 43 47 50 53 54 56 58 59 60 59 62
50 49 46 48 50 50 55 66 72 68 58 60 59 64 69 70 70 69 66 60 50 40 37 39 39 37 40 42 42 44 48 51 49 49 46 42 40 39 42 41 42 48 49 50 53 54 55 56 57 58 58 59 61 66

GFSWCAN_prec_cthk_015.txt.gz
RH
28 30 34 40 46 50 53 60 63 67 68 68 69 72 78 79 79 85 92 91 90 83 73 69 66 64 66 70 79 80 88 96 92 96 84 82 85 82 79 71 64 66 60 54 53 44 44 35 36 44 48 46 42 38
30 34 40 47 48 51 55 58 62 64 68 69 72 74 76 78 80 80 78 81 84 90 73 71 62 65 65 65 75 84 89 92 95 96 84 85 85 86 85 83 71 74 86 76 59 59 57 55 46 48 52 53 45 41
36 41 45 46 48 51 54 56 58 61 64 66 67 73 77 76 77 79 79 86 90 83 70 64 57 59 69 84 91 92 84 84 92 95 96 97 97 83 88 86 89 74 80 74 64 56 58 53 55 57 65 67 69 55
38 41 44 45 48 50 51 56 59 60 63 65 67 74 81 85 87 89 86 93 97 91 82 70 66 66 74 78 81 80 77 81 87 93 98 95 96 98 96 96 92 91 89 83 72 74 77 64 68 80 68 62 73 62
41 42 42 46 51 55 56 57 59 61 64 67 71 72 75 77 80 85 93 97 97 94 88 72 64 70 70 67 63 63 71 76 83 84 89 91 93 95 93 92 93 96 92 88 91 84 82 91 92 88 78 73 76 61
38 47 50 50 51 55 55 55 55 58 62 62 60 57 60 62 66 72 82 85 82 78 80 77 63 64 69 64 52 60 65 67 70 73 76 83 90 95 98 92 85 90 88 82 83 84 79 75 74 84 72 70 59 53
39 50 60 59 55 56 58 58 56 57 57 57 57 57 61 65 66 70 70 73 80 80 79 74 78 85 63 58 54 62 65 65 72 82 81 86 91 94 88 83 77 82 79 82 78 76 72 75 85 82 69 60 57 54
41 47 54 60 60 58 55 56 56 59 63 66 69 71 76 82 84 86 89 89 92 88 87 87 84 91 83 80 74 73 74 75 81 90 87 93 90 92 92 85 98 87 82 79 82 84 90 89 87 88 82 69 57 57
37 43 49 53 58 58 52 50 53 53 56 64 73 78 84 92 95 94 96 90 91 91 94 94 96 97 95 95 93 89 84 88 91 94 94 97 97 94 91 92 98 98 98 98 89 91 94 93 86 86 80 73 65 62
34 39 44 45 50 55 52 49 47 46 47 61 68 79 88 92 94 95 94 96 95 92 94 94 95 98 98 93 94 90 87 95 98 98 98 96 93 94 98 99 98 97 97 98 97 95 93 88 83 85 87 83 72 60
30 34 40 42 41 44 47 49 48 43 46 55 68 74 81 88 96 97 97 98 97 97 97 95 95 98 94 95 96 93 94 95 99 98 97 98 97 97 99 99 98 98 95 95 93 91 90 88 84 86 83 78 73 68
29 33 38 41 40 37 44 52 55 49 46 60 67 69 76 91 92 96 97 98 99 97 96 98 96 96 97 96 94 95 97 98 98 96 96 98 98 98 98 99 96 96 94 92 89 85 82 86 86 78 81 81 83 81
26 31 34 33 36 35 40 51 59 54 53 62 66 71 77 84 94 98 98 98 97 94 95 95 98 95 96 97 97 97 97 97 96 96 99 98 97 96 97 97 96 94 87 88 92 90 85 80 77 75 77 76 76 80
21 25 27 28 32 35 39 53 58 56 57 62 64 73 86 95 88 94 97 98 92 93 94 94 97 98 97 97 96 94 95 94 96 98 98 98 98 98 95 87 89 92 89 89 87 87 88 75 69 69 71 73 74 70
16 21 23 27 31 32 39 50 56 58 64 71 70 82 80 79 73 80 85 86 83 80 81 87 87 85 90 90 89 92 93 97 98 98 99 99 97 92 92 84 85 78 80 78 84 78 68 71 67 77 79 75 81 80
23 23 26 28 28 30 41 48 54 61 64 67 68 76 74 72 65 65 79 81 81 77 77 80 84 88 91 94 92 94 96 98 98 98 98 97 96 95 86 88 83 79 86 77 76 73 70 65 63 66 69 67 67 66
30 29 28 26 23 29 44 48 55 65 66 78 76 75 90 85 73 70 76 78 80 76 80 81 90 97 96 97 97 97 98 99 98 97 96 93 93 91 91 93 88 82 88 83 80 76 75 72 75 71 70 67 62 64
35 31 28 27 25 31 40 46 57 62 66 68 70 63 74 84 77 67 70 72 70 77 77 86 89 94 96 98 98 98 99 98 95 95 89 90 90 90 89 82 75 73 71 71 72 66 63 63 64 60 64 67 65 63
38 34 33 30 30 33 40 44 51 61 64 68 73 60 68 73 70 65 67 72 76 78 75 77 89 97 98 98 97 95 93 91 91 92 90 92 86 84 77 74 69 66 64 64 59 54 54 53 51 48 46 47 51 50
34 31 32 34 35 41 53 56 54 58 69 79 72 67 75 74 70 70 75 78 76 71 70 77 86 91 91 92 93 93 92 91 90 84 78 73 72 72 71 71 70 66 62 60 58 54 51 47 42 43 46 45 46 47
47 48 52 54 55 57 55 65 63 64 74 78 74 77 80 80 80 80 77 82 79 82 85 79 66 64 65 67 66 69 79 89 82 75 73 74 72 66 60 58 56 53 51 47 44 41 39 38 37 38 37 37 40 44
46 49 53 57 60 61 66 69 73 74 78 83 83 82 81 81 80 79 79 74 73 80 77 74 71 56 51 51 52 52 53 54 54 56 60 63 64 62 61 60 60 60 58 53 49 46 43 41 40 41 44 43 42 42
45 49 56 60 59 59 60 65 70 72 79 81 81 79 80 80 76 70 72 71 70 68 66 68 66 61 61 59 56 54 55 56 60 60 60 61 62 64 64 67 68 67 65 64 63 61 55 50 48 46 47 48 48 50
49 53 60 67 69 70 68 64 61 66 70 76 81 85 86 85 81 78 81 80 77 74 72 71 71 70 69 68 64 62 59 58 60 63 59 59 61 61 60 63 64 65 66 65 64 63 60 55 51 50 48 46 48 52
60 56 63 67 67 68 68 71 72 73 74 72 74 81 82 84 83 84 87 90 88 87 84 82 74 72 68 64 59 57 60 61 61 61 60 61 61 60 56 51 51 56 56 56 52 49 48 45 42 41 43 43 42 47
74 78 83 76 76 80 76 78 73 68 66 65 64 71 73 65 67 74 76 76 73 65 57 56 55 54 50 48 47 47 47 47 48 51 57 58 57 55 55 54 53 55 50 45 42 40 40 38 36 35 36 39 41 41
85 89 79 78 61 61 63 57 47 44 41 51 54 50 57 59 63 60 59 57 55 59 62 62 60 55 51 47 46 41 36 33 34 41 44 43 42 42 41 41 41 41 43 43 44 44 43 42 44 45 46 49 47 47
81 79 76 69 70 61 53 45 40 36 38 45 50 49 55 58 58 58 55 54 58 58 55 52 49 44 39 36 34 33 31 29 28 28 37 38 39 39 40 37 38 40 42 44 44 43 41 39 39 40 41 41 40 40
61 59 65 70 60 57 56 48 40 37 38 41 45 49 53 59 62 60 53 49 48 51 47 44 39 34 32 32 34 34 33 35 34 33 31 32 34 36 39 41 42 43 41 41 43 42 43 42 42 44 45 46 46 44
64 57 53 50 46 50 50 48 45 43 40 39 41 48 57 60 58 54 47 38 34 34 33 33 35 35 35 35 36 38 37 39 39 40 37 35 37 38 39 39 40 40 40 43 48 49 50 51 50 51 50 49 48 48
47 47 49 50 50 49 49 51 52 52 50 51 51 57 60 62 66 61 55 45 40 36 32 31 36 39 38 39 40 41 42 43 43 43 39 37 38 39 39 40 42 45 46 50 53 54 55 54 55 55 56 56 57 58
58 48 42 49 55 59 58 57 59 60 64 62 61 62 65 68 65 62 55 50 43 40 33 29 34 39 40 41 42 43 44 45 45 44 44 42 42 43 46 47 48 49 52 55 57 58 60 63 63 62 63 65 66 66
42 45 45 45 52 57 54 61 64 68 69 65 67 67 64 61 60 59 58 52 45 40 37 33 34 38 41 41 41 43 46 47 47 48 49 50 51 52 54 56 56 56 58 61 63 64 66 67 67 69 70 73 73 72

GFSWCAN_prec_cthk_021.txt.gz
RH
23 27 32 34 39 43 49 55 59 60 63 67 67 67 66 70 85 92 93 93 91 83 73 72 74 75 74 74 72 63 64 67 72 77 75 72 70 65 61 46 44 64 76 84 73 73 62 55 56 62 54 42 30 26
24 28 36 38 42 46 50 58 68 73 76 80 83 80 72 67 71 85 93 97 98 92 75 71 68 65 64 64 70 72 73 77 76 83 92 93 98 87 72 67 46 73 72 68 73 65 60 68 77 71 67 59 43 35
25 30 35 38 40 41 43 51 63 68 79 83 88 87 87 77 73 75 75 81 88 88 77 68 60 57 58 63 73 88 92 92 96 94 97 98 94 93 90 73 61 63 72 60 62 75 64 68 80 73 67 64 55 48
23 27 33 37 36 38 40 41 48 52 70 78 83 84 85 89 78 76 80 79 84 86 81 66 62 60 59 62 73 80 80 86 97 98 97 96 94 97 97 88 82 81 80 70 68 78 71 71 81 80 76 70 57 54
24 25 28 33 34 33 32 32 36 46 58 72 79 80 82 89 91 86 83 82 81 87 82 70 68 69 75 82 86 82 80 90 89 90 91 94 94 98 97 85 94 96 79 82 81 73 67 71 76 75 78 70 65 64
22 25 28 32 31 30 30 31 34 41 55 75 81 84 89 88 93 92 91 85 88 92 89 85 80 76 77 81 83 82 74 82 89 90 87 89 91 98 95 95 82 91 90 89 80 74 76 87 95 97 88 74 66 64
19 21 25 27 30 27 28 28 31 39 49 64 71 80 85 86 95 97 98 95 96 98 98 94 90 86 82 76 65 66 67 72 77 86 83 89 93 98 98 98 97 90 91 95 86 70 80 79 95 91 89 79 75 69
18 18 21 25 27 26 24 25 32 34 40 51 63 76 84 87 93 97 97 98 97 98 98 98 97 95 89 79 70 74 73 72 79 85 88 96 98 96 98 97 98 98 98 99 94 78 78 88 91 90 88 83 73 65
15 16 19 23 26 25 23 25 33 34 37 48 58 73 79 87 94 97 98 99 98 98 98 98 98 98 97 92 88 87 89 94 93 96 97 98 98 98 98 99 98 96 96 99 97 85 80 82 78 90 85 81 72 68
15 14 19 22 24 25 25 26 30 33 37 48 53 67 74 83 89 94 93 98 98 99 98 98 98 98 99 97 97 96 96 97 98 98 97 98 97 98 95 100 99 97 99 98 95 87 79 91 86 81 80 78 75 70
21 18 20 23 23 24 26 27 29 32 39 49 56 65 73 83 88 92 97 99 97 98 98 99 97 98 97 98 98 97 98 98 99 98 97 98 97 94 95 96 98 98 95 95 96 89 96 93 85 77 72 69 72 71
32 28 26 27 26 22 27 32 35 37 46 53 60 68 77 81 90 95 98 98 99 98 98 98 96 95 98 97 98 97 98 98 98 97 98 98 98 98 98 97 98 99 97 90 85 86 86 85 85 81 75 76 79 76
31 29 28 26 24 25 37 47 43 47 55 54 60 70 82 83 95 96 97 97 99 98 97 97 94 94 96 95 97 98 96 98 97 98 98 98 98 98 98 98 95 94 96 96 96 93 90 88 87 90 91 87 87 83
31 26 25 24 22 31 45 52 47 53 52 56 66 82 88 94 97 98 98 98 95 91 91 89 90 90 89 89 94 95 96 96 98 98 98 98 99 98 96 95 94 96 96 96 96 96 95 94 93 90 85 79 77 85
28 25 23 21 25 36 48 48 47 55 53 59 71 90 95 96 96 95 94 91 87 84 82 86 84 81 82 85 88 91 93 98 98 99 99 98 97 92 91 90 87 85 85 86 86 87 85 87 84 85 80 76 77 70
25 27 24 24 33 39 45 47 50 57 54 65 80 89 88 86 89 88 85 85 81 78 77 75 78 80 86 89 90 94 95 98 99 99 98 95 91 90 85 83 82 81 77 76 77 78 81 79 67 71 73 74 76 75
26 25 29 35 38 44 48 51 52 55 63 74 81 77 81 79 80 79 78 80 80 76 73 71 78 88 87 92 95 95 98 99 97 91 91 86 87 83 79 76 74 66 70 74 75 75 76 77 77 70 70 68 65 67
36 33 38 36 47 51 52 55 54 63 71 76 76 77 76 74 72 68 66 67 67 68 71 77 78 81 89 94 97 98 95 91 91 88 85 78 72 71 69 64 63 60 58 55 53 56 58 59 62 64 66 71 72 74
42 41 41 40 45 55 58 62 64 71 76 79 82 76 71 65 59 56 55 54 56 59 60 65 74 85 92 92 89 85 85 86 86 83 82 76 66 60 57 55 53 52 51 50 49 50 50 48 46 47 50 54 56 57
43 45 46 47 51 53 55 62 67 70 75 75 70 66 63 65 65 62 57 52 50 46 46 54 66 73 74 72 71 71 73 75 70 69 69 69 68 65 60 58 57 56 55 53 49 47 44 43 43 42 41 40 39 41
46 50 49 50 54 57 61 66 71 76 76 73 73 75 73 72 69 68 65 62 60 62 64 62 62 60 60 60 60 58 58 60 61 64 64 65 61 59 56 55 55 55 56 59 57 55 55 55 55 54 50 46 45 43
43 48 51 54 54 55 62 69 77 81 87 85 86 84 76 65 59 58 60 58 60 64 65 68 67 67 64 61 61 61 64 67 67 67 69 70 72 72 72 70 69 69 68 68 67 66 65 62 57 56 56 55 53 53
49 51 55 60 62 66 70 72 76 75 68 65 63 65 66 63 55 54 58 58 54 54 51 49 49 51 54 55 54 53 52 55 58 61 62 63 64 64 64 63 63 61 59 54 51 49 48 47 47 48 49 51 50 49
54 62 62 66 71 73 73 62 58 68 68 58 58 59 63 67 62 54 59 54 50 48 44 41 40 40 41 41 41 43 39 38 41 43 45 48 49 50 50 51 50 49 49 47 41 34 28 25 25 26 30 35 40 43
60 69 64 55 50 52 49 47 45 53 57 58 61 61 60 59 58 53 54 51 51 54 56 48 43 42 39 37 35 33 30 28 28 29 30 30 33 37 39 38 34 33 32 30 27 26 27 29 29 30 30 30 31 33
50 48 48 46 43 42 41 41 42 43 50 58 60 59 60 56 51 50 50 51 54 52 45 42 41 38 37 36 36 34 33 32 30 29 31 32 32 32 33 34 34 34 34 32 31 32 33 33 33 34 36 37 39 40
49 46 43 41 40 39 37 34 34 38 43 49 56 59 53 53 50 44 44 45 51 53 48 43 38 36 33 34 35 36 36 36 35 34 33 33 33 34 34 35 35 34 34 35 34 33 33 34 36 37 38 39 39 39
45 45 45 45 44 43 41 36 38 40 43 48 50 50 49 49 47 43 46 45 47 48 47 46 40 34 34 35 37 39 39 38 38 36 35 35 35 36 37 37 38 37 37 36 37 38 41 44 46 48 48 48 47 46
47 45 45 48 48 49 55 50 46 45 48 54 54 53 50 49 50 51 51 50 49 52 52 48 43 37 37 37 39 40 41 40 38 37 35 36 36 37 38 39 39 41 43 45 47 49 50 52 53 53 52 52 51 52
55 52 47 48 54 60 61 59 54 54 61 58 59 60 59 56 57 59 59 57 56 58 55 49 45 42 41 39 40 42 42 41 41 39 38 40 41 42 44 44 45 47 50 52 53 55 56 56 57 57 56 56 56 56
47 47 45 46 50 50 50 55 60 69 66 60 68 69 69 67 65 64 62 62 62 60 56 49 48 47 44 41 43 43 43 44 45 46 47 47 49 51 51 51 53 54 54 56 58 60 61 62 63 62 62 61 61 61
46 44 44 47 47 47 49 52 60 69 66 59 66 72 74 75 71 66 64 64 63 60 53 51 51 50 46 44 44 44 46 47 49 52 54 55 57 58 59 61 61 62 62 63 65 67 68 69 69 68 67 67 66 67
42 44 45 45 44 45 47 52 58 63 60 59 67 75 77 76 72 68 67 65 62 56 50 51 52 50 49 46 45 45 48 50 52 56 59 62 64 67 69 70 71 71 70 74 77 78 77 76 74 72 71 70 69 69

GFSWCAN_prec_cthk_024.txt.gz
RH
20 23 26 30 35 35 36 36 37 42 50 68 82 90 94 96 92 77 76 81 89 87 75 69 73 75 75 77 77 77 75 73 75 76 70 70 72 65 57 39 41 55 59 63 64 68 55 45 41 53 50 48 44 39
19 21 25 28 31 34 33 31 33 35 47 70 84 93 96 97 97 91 81 84 88 86 75 69 65 63 63 64 66 67 66 70 74 78 81 84 90 95 94 75 51 53 48 55 48 44 48 47 50 51 56 60 53 44
19 20 23 27 29 33 30 29 31 35 43 68 84 94 97 98 97 98 91 88 87 84 76 74 68 61 60 63 68 75 87 91 91 92 96 94 93 93 87 83 75 61 52 61 69 43 37 45 55 56 56 63 61 52
19 20 20 22 27 30 28 26 27 30 38 61 77 84 90 97 98 97 97 93 91 88 85 71 72 75 74 73 75 77 81 85 86 91 91 97 98 94 94 92 81 72 75 55 64 54 50 47 51 59 62 69 70 63
19 18 18 19 23 26 25 23 24 27 34 50 71 80 87 95 98 98 98 96 96 99 92 83 81 77 75 77 76 79 79 85 92 95 96 95 96 96 93 94 87 84 69 66 69 52 64 67 56 61 67 70 74 72
17 15 15 17 21 24 23 22 22 27 34 51 67 79 84 94 97 97 98 94 94 98 97 95 85 82 77 77 79 75 81 89 92 92 93 90 92 98 96 88 76 79 76 64 63 71 65 70 68 67 70 76 77 74
19 14 12 15 21 24 23 20 22 26 31 48 60 73 86 93 97 97 97 98 98 98 98 95 90 86 83 80 73 75 78 81 89 89 90 93 94 98 98 96 88 79 78 83 88 94 91 87 80 72 70 70 73 75
23 16 13 15 21 24 23 20 20 22 31 43 55 71 81 88 97 96 96 96 98 97 97 97 96 93 88 83 84 84 85 90 93 95 95 98 97 98 98 94 96 90 82 86 89 97 92 96 82 71 62 72 76 79
39 31 22 20 22 24 23 21 19 24 34 46 58 71 80 86 91 94 93 94 95 95 94 96 96 94 93 93 94 91 95 98 97 98 98 98 98 98 97 98 98 91 82 88 96 98 98 98 92 77 73 81 90 87
38 30 28 26 25 26 25 25 29 29 42 50 65 71 77 87 89 93 95 97 97 94 94 96 97 96 98 95 96 97 96 98 98 98 98 98 98 97 98 99 99 91 97 87 87 95 98 95 96 93 94 96 96 90
36 29 26 25 24 23 30 39 36 40 49 53 68 73 80 84 90 90 92 96 98 98 98 96 98 98 93 95 96 97 98 98 99 98 98 99 97 99 97 98 94 98 98 99 95 97 97 91 94 93 93 93 92 85
32 29 24 23 22 25 39 41 42 45 51 58 70 76 80 87 91 91 96 98 98 98 99 98 98 96 96 97 97 97 98 98 99 97 98 98 98 99 98 98 98 95 92 97 98 97 96 96 95 93 93 88 83 79
29 28 25 23 23 33 42 40 44 46 52 63 67 76 87 90 90 94 95 95 98 98 98 97 95 95 97 97 97 98 96 98 97 97 98 98 98 99 99 98 98 97 99 98 96 97 96 93 94 91 91 82 79 85
25 29 26 26 32 38 42 40 46 48 58 63 71 86 94 96 96 96 98 98 96 92 92 93 92 92 90 91 93 95 97 94 97 97 98 99 97 97 96 96 93 96 96 96 96 94 94 91 91 89 91 92 88 86
24 30 31 34 38 42 42 44 48 52 58 64 72 90 95 97 95 96 91 88 87 84 82 84 83 83 86 88 90 94 95 98 99 99 98 95 95 88 86 85 90 91 91 93 88 88 87 91 91 89 89 85 84 80
27 30 39 41 42 43 43 46 50 53 57 67 76 78 74 73 79 81 81 83 77 76 74 75 78 82 89 92 94 97 98 99 98 98 98 93 92 83 70 72 74 77 81 84 88 89 88 84 80 79 86 86 80 77
32 34 39 44 49 49 48 45 48 51 59 65 67 64 63 61 65 69 70 69 72 73 73 74 78 86 87 90 94 97 98 99 96 92 88 80 75 73 75 72 66 62 61 64 68 72 77 78 78 77 78 79 76 70
38 38 39 43 47 53 54 55 57 63 66 64 60 59 58 56 54 50 55 59 60 59 65 72 77 82 87 93 96 98 97 95 93 89 78 73 69 69 65 59 58 58 57 55 54 57 58 59 59 61 64 67 69 70
44 43 45 44 47 54 57 55 58 62 65 67 66 61 59 59 57 54 51 47 46 49 53 62 74 81 82 83 87 89 93 90 84 80 76 70 67 65 65 63 62 59 57 56 54 51 49 46 46 46 44 42 42 44
46 47 48 48 50 53 58 61 64 67 70 71 69 65 57 55 55 55 53 52 50 50 54 59 61 60 60 61 62 63 64 65 66 68 67 65 64 64 62 60 61 60 60 58 58 59 58 57 56 54 52 49 46 42
44 47 51 51 52 57 59 63 68 71 72 63 64 60 55 52 48 44 40 38 37 44 52 54 57 58 60 61 61 61 67 70 71 71 72 71 70 70 74 75 75 71 65 60 58 57 55 52 52 52 52 51 50 48
43 49 52 55 59 64 65 61 66 61 57 55 58 60 57 56 51 47 43 39 40 45 47 47 48 50 50 49 47 44 43 48 55 59 63 63 62 62 63 62 60 59 58 55 52 49 45 42 40 41 41 43 45 45
47 54 53 59 62 62 57 53 58 60 54 53 53 54 53 55 53 45 46 50 50 46 46 45 43 43 45 42 36 31 29 29 30 32 35 38 40 44 47 48 48 46 40 35 32 28 26 25 28 30 32 34 34 34
53 55 51 54 55 55 48 46 49 53 53 51 53 53 55 53 49 49 49 51 54 54 52 49 48 47 39 34 31 29 30 30 29 28 28 29 30 32 33 34 33 33 30 28 27 26 27 29 31 33 34 33 32 32
52 55 54 45 41 42 43 43 42 46 51 53 54 54 54 54 52 51 48 47 50 52 46 43 41 37 34 33 33 32 32 31 30 31 32 33 33 34 34 33 34 34 33 32 31 32 32 32 32 32 33 33 32 33
45 41 41 38 35 35 35 37 40 45 49 55 58 57 55 52 47 45 44 44 42 43 47 46 43 38 35 33 34 35 35 35 34 34 33 33 34 35 35 36 36 36 36 37 36 35 34 33 33 34 35 36 37 37
43 40 39 41 42 41 40 40 40 43 47 50 53 53 51 48 46 43 41 44 45 44 44 46 43 39 36 36 37 38 39 39 38 36 35 36 36 37 38 38 38 38 38 39 40 40 41 42 43 45 45 45 44 43
40 42 42 45 47 49 54 49 44 43 49 51 51 51 49 48 48 48 49 50 50 51 52 51 46 43 40 39 40 41 42 42 41 39 39 39 40 40 42 42 43 43 43 44 46 47 48 50 50 50 50 50 50 50
54 53 51 49 49 53 56 48 50 56 61 61 63 64 59 56 53 54 55 56 56 56 54 56 49 47 44 41 42 43 45 45 43 42 41 41 42 43 43 44 46 48 50 51 52 53 54 55 55 56 57 56 56 55
56 54 49 50 55 57 49 54 59 64 73 71 63 67 71 69 64 61 62 64 64 61 61 58 50 50 49 45 45 47 48 48 48 48 48 48 50 51 52 53 54 55 56 58 60 61 62 63 63 64 63 62 60 60
51 51 49 49 49 48 50 51 53 66 72 72 65 65 72 73 75 72 70 71 70 68 65 57 51 53 53 49 49 49 49 50 51 52 54 54 55 57 60 60 62 64 67 68 69 70 70 72 72 72 71 71 70 71
44 46 48 49 48 46 48 49 51 54 56 55 55 62 73 73 81 80 79 77 74 70 65 55 54 56 55 51 50 48 50 52 53 56 58 60 64 67 70 72 73 73 72 75 78 81 82 81 80 79 79 78 75 73
46 45 46 48 49 47 47 49 50 52 51 52 53 58 69 74 83 86 83 80 75 71 64 57 59 58 55 52 51 50 51 53 55 57 62 68 73 75 75 76 79 81 83 83 84 85 85 85 85 84 82 80 78 78

GFSWCAN_prec_cthk_030.txt.gz
RH
18 18 18 19 17 16 15 18 21 21 21 24 26 37 56 86 99 98 98 96 93 92 93 96 91 78 75 76 74 70 68 70 68 78 66 68 58 60 49 41 43 49 45 39 41 41 38 33 32 34 50 52 50 46
17 17 17 19 17 15 14 18 20 21 21 22 26 42 61 89 97 95 93 90 87 89 86 90 86 86 85 83 78 76 72 78 75 79 79 75 73 67 61 57 45 43 40 43 38 32 33 38 33 36 42 44 45 45
18 19 22 24 21 19 16 19 20 21 20 23 27 47 74 87 91 88 83 82 82 83 82 84 85 83 81 83 88 85 83 81 81 81 80 78 74 60 65 56 53 46 47 48 42 35 38 41 38 34 38 38 42 40
28 32 34 36 35 33 31 28 25 22 23 24 35 59 77 83 84 81 78 80 81 81 82 80 80 79 81 78 81 85 88 91 90 92 93 90 86 77 77 70 64 56 56 55 52 46 38 33 29 28 33 35 33 33
34 35 35 36 34 32 34 32 27 24 28 34 45 65 76 77 82 79 77 80 83 84 81 80 82 80 83 85 90 91 94 94 96 97 97 97 94 92 82 78 68 72 62 57 46 44 51 45 43 28 27 31 31 34
33 33 35 34 32 30 29 27 25 33 37 41 54 65 74 78 81 85 81 84 85 87 89 88 88 90 91 93 96 97 96 97 98 97 97 97 96 97 97 90 78 80 77 72 60 60 52 49 45 39 43 33 31 37
34 33 34 33 29 26 24 22 34 39 42 50 61 68 77 78 84 89 86 86 90 91 92 91 90 93 96 97 98 98 98 98 98 98 97 98 98 98 97 96 86 91 89 86 79 75 63 56 46 42 33 35 39 43
28 29 30 29 25 23 22 29 38 41 45 58 68 75 81 83 88 89 88 89 91 92 90 95 94 94 97 98 97 98 98 98 98 98 98 98 98 97 97 93 89 82 92 89 87 84 76 67 60 51 44 45 46 46
28 27 28 26 24 22 29 38 39 41 54 64 73 78 84 85 88 87 88 90 92 93 96 97 97 97 97 96 96 97 98 98 98 98 98 98 98 98 98 98 90 79 72 61 77 78 72 68 54 49 55 50 56 68
27 28 28 22 22 30 38 38 40 50 60 69 71 77 81 86 86 86 85 89 92 92 95 98 98 97 95 91 91 95 96 97 98 97 98 98 98 97 98 99 99 98 83 69 62 63 64 57 55 70 67 69 83 77
31 29 22 27 32 35 38 42 48 57 65 74 72 74 81 84 83 84 88 89 91 93 96 95 95 94 91 91 91 92 94 96 96 94 94 97 97 98 99 99 99 99 93 94 94 93 93 91 85 81 92 99 98 99
30 26 28 33 36 37 44 48 53 60 68 73 70 75 79 80 85 86 89 93 94 94 93 90 91 90 86 83 86 87 91 89 94 87 86 96 95 97 98 98 98 98 98 99 98 98 97 89 86 98 95 92 97 98
27 31 31 32 34 38 38 43 48 55 63 71 72 72 74 80 86 93 96 98 97 90 88 87 88 85 82 81 79 78 80 89 85 90 96 92 87 93 96 97 98 97 98 98 98 97 97 97 98 98 98 99 98 97
28 35 36 33 35 36 34 35 37 42 53 61 65 73 76 86 88 88 87 90 90 85 82 85 82 83 82 80 81 83 82 77 84 91 93 86 84 83 88 90 93 95 96 96 98 97 96 95 96 95 94 95 95 97
29 35 41 41 40 38 37 37 38 39 42 45 48 62 69 71 70 70 73 75 78 77 78 77 78 73 73 76 78 84 80 90 90 90 86 77 75 75 75 78 81 83 85 86 90 89 89 91 91 89 89 93 93 93
31 33 39 43 43 42 39 41 46 45 45 47 53 55 53 51 48 49 53 57 63 68 71 72 78 78 70 75 83 88 91 92 94 88 80 76 74 71 67 66 65 70 72 70 68 72 79 83 86 91 91 89 87 84
38 35 36 42 44 44 42 46 52 47 41 48 51 44 38 37 36 35 37 40 45 49 55 61 71 74 70 75 86 87 90 92 90 82 76 73 72 67 66 70 66 61 59 60 62 60 60 59 60 63 69 77 79 78
39 41 41 42 44 44 47 51 53 44 44 45 45 41 36 33 33 32 31 29 35 41 46 51 58 63 65 69 74 77 78 80 77 69 70 66 67 68 67 67 65 62 57 54 54 56 56 54 52 51 51 51 53 56
39 42 45 46 47 45 44 39 38 42 47 50 50 48 43 35 33 34 35 35 36 35 40 44 49 52 55 58 57 60 62 65 70 70 67 69 73 73 68 62 59 56 55 52 49 49 49 47 46 45 45 44 44 46
37 44 46 49 51 44 45 46 40 43 46 46 48 50 48 43 37 36 36 34 31 32 36 41 43 45 44 42 38 36 36 39 44 48 47 47 51 50 49 49 48 47 44 43 42 39 42 44 43 44 44 44 46 46
35 40 44 44 46 43 40 45 44 42 44 46 48 52 52 51 46 40 46 46 44 43 43 44 44 42 39 39 36 35 35 33 36 39 41 42 43 43 39 33 30 29 29 31 33 33 34 36 36 36 39 42 42 41
33 37 43 43 44 43 42 39 45 44 48 48 51 52 51 49 48 40 49 51 51 52 49 46 42 41 44 38 36 34 34 36 37 37 36 37 38 37 35 34 32 31 30 31 33 36 36 35 36 37 36 35 34 32
33 39 38 39 41 41 42 39 44 47 50 49 50 51 53 55 49 46 51 54 58 52 47 45 40 37 38 39 40 39 35 34 37 38 38 39 43 42 40 40 37 35 35 36 37 39 38 35 34 33 33 32 32 31
40 42 42 36 35 39 39 42 45 47 51 52 52 52 54 54 52 52 51 53 53 61 59 49 48 48 47 46 45 40 38 39 38 38 39 38 40 42 42 42 43 43 40 44 45 45 45 42 37 36 34 34 34 33
39 40 42 36 34 37 39 43 43 44 51 56 56 56 56 57 56 54 51 53 54 58 62 62 58 51 47 46 45 44 44 43 44 44 43 40 42 43 46 45 46 46 45 44 48 49 49 49 49 46 44 42 42 41
39 32 33 34 37 40 39 40 40 45 51 56 62 62 58 58 54 56 55 56 60 63 66 64 62 58 56 49 47 46 46 45 46 46 46 43 43 46 46 46 47 52 48 49 49 53 54 54 54 49 50 49 47 47
36 35 38 40 44 44 45 44 44 46 53 56 61 65 60 56 57 64 66 69 72 73 70 69 69 66 64 58 54 51 48 48 48 48 48 47 46 46 46 48 50 51 50 54 57 60 60 60 59 57 59 60 57 55
46 48 49 47 48 50 50 48 48 49 52 54 59 62 62 63 70 71 75 78 79 80 81 78 76 73 69 64 58 54 53 54 55 53 52 52 51 51 49 51 53 50 53 57 58 64 64 64 64 64 63 64 66 64
48 48 49 53 53 52 52 51 49 49 51 54 56 58 62 65 69 73 80 83 87 86 87 86 83 78 74 65 60 58 55 57 59 59 57 56 55 55 58 62 64 66 66 69 67 65 67 69 72 74 74 74 73 74
48 52 53 53 54 53 54 53 53 50 49 50 52 53 58 62 66 70 77 82 87 86 87 88 85 80 74 68 64 63 63 62 60 57 56 57 59 65 71 74 75 74 74 76 79 80 78 80 82 83 83 82 82 82
41 45 48 49 48 55 49 47 47 50 53 50 51 55 59 61 58 63 75 83 89 90 87 85 80 76 71 67 65 62 60 55 52 55 57 61 67 75 79 82 83 84 84 85 85 85 85 85 85 86 86 85 86 84
48 45 47 47 49 47 44 46 49 53 53 51 54 55 60 61 66 73 75 83 84 85 84 77 74 69 66 64 59 49 42 50 57 62 65 68 73 81 86 89 90 91 92 92 92 91 91 91 90 89 89 89 87 87
41 37 44 42 43 47 48 46 50 52 52 53 57 62 62 64 72 77 75 80 82 79 73 68 63 64 63 55 43 43 46 54 58 62 67 72 77 82 88 92 92 93 95 95 96 96 96 96 95 94 93 92 89 87

GFSWCAN_prec_cthk_033.txt.gz
RH
19 18 19 21 24 30 29 26 22 23 22 22 23 27 48 77 87 88 85 83 83 82 85 90 94 94 93 90 82 71 66 72 59 75 79 76 57 55 49 49 50 60 54 50 50 50 52 48 43 51 54 58 59 55
20 22 29 33 36 37 36 34 34 33 27 25 27 37 63 81 83 85 81 79 83 83 85 92 94 93 92 92 93 85 74 76 74 83 83 78 75 69 69 60 44 48 53 53 49 45 45 46 48 43 47 50 54 51
26 32 33 33 36 36 33 31 33 30 26 31 36 51 69 80 83 84 80 80 85 87 87 91 91 94 93 93 92 94 87 83 76 75 73 77 76 67 71 55 55 53 46 44 51 48 48 44 45 42 42 44 48 45
31 31 31 34 36 34 31 29 27 24 35 39 45 59 74 75 79 84 81 84 87 91 91 90 91 91 91 94 92 92 91 94 93 90 93 90 83 73 69 65 63 62 60 54 43 43 51 49 47 45 44 41 43 41
29 31 31 29 31 31 27 25 21 33 38 44 58 69 74 73 78 83 80 83 89 92 93 93 94 93 93 93 94 95 95 96 97 97 97 96 94 94 84 77 68 62 57 57 53 48 44 46 51 47 42 38 38 42
32 29 28 28 28 26 23 21 28 36 42 56 70 73 76 77 80 82 87 87 89 91 94 93 92 96 97 97 98 98 98 98 98 98 98 98 97 98 97 91 80 81 79 68 55 55 55 55 55 52 49 37 33 33
29 28 27 30 28 21 19 29 36 39 51 67 74 76 77 79 85 84 88 91 94 95 94 94 95 96 97 98 97 98 98 98 98 98 98 98 98 98 96 96 89 92 86 82 72 65 55 49 50 49 47 45 43 33
28 29 29 24 18 21 33 37 39 51 61 68 70 75 79 82 85 87 85 85 95 93 93 97 95 95 94 93 94 96 97 97 98 98 98 98 98 98 97 96 97 90 84 83 90 82 67 63 57 52 48 43 42 39
32 27 20 24 30 33 35 43 53 59 64 65 68 75 82 83 84 86 86 88 88 91 92 96 93 92 94 97 96 96 97 97 97 98 98 98 98 98 98 98 98 83 73 61 63 83 83 73 66 57 50 43 43 45
31 22 26 33 35 39 48 53 59 65 65 65 73 84 82 80 81 84 84 86 89 91 93 93 91 90 89 89 90 94 97 95 97 96 97 98 98 98 98 98 98 98 89 67 72 87 83 78 70 59 52 44 43 47
26 25 30 32 35 40 44 47 55 66 66 70 77 77 79 81 81 80 83 87 89 91 91 89 87 86 83 84 86 87 88 95 94 85 88 96 97 97 98 98 98 98 98 91 80 70 68 67 63 61 67 63 64 59
26 31 30 31 35 36 34 35 46 57 68 70 70 74 76 75 76 78 85 91 92 94 91 88 86 85 84 86 89 87 80 74 79 77 85 96 96 94 95 96 97 98 98 98 98 98 99 83 93 95 89 82 65 65
27 35 35 35 36 32 31 30 34 45 54 63 67 70 67 67 78 85 90 92 91 84 79 81 82 78 80 83 83 76 72 76 70 79 89 95 89 86 90 89 91 93 97 98 97 98 98 98 96 97 98 98 96 99
28 34 39 38 35 35 35 33 34 40 49 49 51 59 57 64 67 74 76 76 76 75 75 79 79 76 70 72 72 80 75 69 77 87 90 83 82 83 80 82 82 82 86 91 95 98 98 98 94 97 96 97 96 97
30 31 37 39 39 38 38 37 40 39 42 42 44 53 53 51 50 53 55 58 64 65 67 73 74 66 64 66 66 69 71 86 86 86 80 78 78 74 73 75 77 77 75 77 81 86 93 96 97 98 98 98 97 96
35 33 34 39 40 40 38 42 40 37 35 37 36 39 37 37 35 34 33 36 41 46 63 65 61 64 62 62 68 78 84 85 84 79 71 70 75 75 73 70 64 66 68 69 70 71 72 76 85 91 91 92 93 93
37 39 38 38 39 39 39 45 35 32 37 40 43 35 34 34 34 33 33 31 36 38 43 48 53 61 59 64 73 74 81 80 79 76 69 69 73 73 72 65 60 57 56 52 60 62 60 62 65 65 65 72 75 78
36 40 44 43 40 38 38 33 35 41 43 43 47 42 37 35 36 36 35 34 33 37 38 42 45 49 54 58 59 57 57 59 60 65 54 53 56 58 59 58 56 51 47 48 44 52 50 49 52 54 55 55 54 52
35 40 41 45 43 37 42 36 38 41 41 42 49 49 45 38 39 38 37 36 36 35 38 43 43 43 45 45 40 41 40 40 49 47 52 49 47 46 44 41 40 40 41 37 35 38 47 45 45 44 49 50 46 46
32 36 40 40 42 38 42 41 39 41 46 42 51 54 49 48 40 41 41 41 39 38 40 43 43 40 41 41 40 39 42 36 41 45 49 49 49 48 43 39 35 31 30 33 35 32 38 37 39 40 39 39 40 39
30 32 38 39 44 39 36 42 45 39 44 51 53 58 54 51 44 41 47 44 45 43 44 43 42 43 43 41 41 37 40 36 38 39 39 38 37 40 40 38 35 33 33 34 36 38 38 39 38 39 36 34 32 31
32 31 37 40 41 39 39 34 43 45 52 51 54 54 53 54 51 45 53 54 51 51 49 51 46 41 45 43 42 44 41 40 43 43 41 39 42 44 44 42 40 37 37 39 40 40 40 35 33 37 33 31 33 31
32 35 38 36 39 37 40 38 49 47 52 54 57 57 56 59 56 55 57 56 58 59 61 58 53 56 53 52 52 52 45 42 45 45 46 44 43 49 46 44 44 45 44 44 43 41 41 37 38 36 38 37 33 30
38 43 45 39 36 38 40 48 48 50 56 59 60 63 61 57 57 62 60 60 59 62 63 66 65 61 58 58 55 54 49 45 47 47 49 45 46 45 46 47 47 47 48 48 53 53 51 49 45 44 43 41 40 38
37 37 40 32 35 42 41 42 44 50 55 60 63 67 63 58 59 59 64 64 62 66 68 69 69 67 66 63 57 57 56 48 46 49 52 47 48 49 50 50 51 51 50 50 51 56 58 58 58 53 51 47 41 45
36 29 32 37 41 42 39 43 42 47 51 56 62 62 64 63 63 63 62 67 73 77 76 77 78 77 73 69 64 60 55 53 52 53 54 51 51 50 52 53 51 55 50 52 52 56 59 59 60 57 59 57 54 54
43 43 44 40 44 47 52 49 47 47 49 57 62 62 63 65 66 69 65 68 80 81 86 83 82 82 80 75 71 62 59 58 58 56 58 58 56 55 52 52 54 52 50 58 61 63 64 64 63 63 62 62 61 60
45 44 52 56 51 57 56 57 56 56 57 59 62 71 80 66 69 70 68 68 78 81 84 82 84 82 81 80 72 64 61 61 61 56 52 52 53 56 54 58 60 59 61 66 63 67 69 70 70 69 70 70 70 72
48 56 49 51 56 55 63 68 63 77 67 56 62 65 65 68 68 63 64 70 78 83 88 88 79 78 76 70 65 64 60 52 47 49 54 58 61 60 63 69 73 74 75 76 74 73 71 69 73 74 79 80 81 77
68 55 49 52 60 58 60 73 57 57 58 58 59 58 68 78 68 63 72 74 82 86 88 87 82 76 74 74 69 61 52 49 48 50 54 58 62 65 70 76 82 85 85 85 86 87 85 84 86 86 86 83 83 83
51 51 53 54 65 64 62 47 54 59 55 58 61 58 63 67 73 81 82 81 83 84 83 75 72 73 73 64 56 46 44 53 52 54 56 62 68 72 78 83 86 89 91 91 90 91 90 89 89 87 86 85 84 83
54 54 61 51 58 55 48 54 52 57 60 64 72 70 74 78 82 87 79 75 78 77 69 69 73 71 60 50 45 44 41 50 58 63 67 67 68 72 77 82 82 86 90 93 94 94 93 92 90 90 88 87 86 84
52 48 48 51 55 60 65 54 53 59 61 66 67 64 69 69 72 76 71 75 71 66 67 65 59 50 44 41 42 48 53 59 58 60 61 64 68 73 77 80 79 79 81 84 87 91 95 96 96 94 92 91 89 86

GFSWCAN_prec_cthk_036.txt.gz
RH
30 24 26 31 31 32 36 34 33 31 30 30 34 38 50 69 82 88 87 89 93 94 94 97 97 98 97 96 96 79 69 85 75 86 85 94 81 73 53 53 57 49 50 60 56 54 61 58 54 58 71 67 56 54
31 32 30 30 32 32 34 33 31 28 25 35 40 48 64 77 81 86 86 87 92 95 95 98 98 98 98 95 96 94 77 71 83 92 90 79 76 72 68 61 56 59 62 56 55 52 51 57 57 60 56 60 66 55
37 29 30 30 28 30 31 29 26 23 31 38 46 61 72 80 80 85 84 86 91 94 96 97 96 97 96 95 95 97 89 83 70 70 69 73 79 66 66 68 71 65 64 66 60 53 53 54 55 54 56 52 55 57
29 31 30 29 29 31 27 24 21 24 35 44 63 73 76 77 79 79 81 88 91 94 97 93 96 96 95 96 97 96 95 93 92 90 89 82 76 64 69 62 55 57 59 58 62 60 57 51 53 53 50 48 45 49
31 29 28 31 31 26 22 19 26 34 45 64 72 72 72 75 77 82 84 86 88 93 95 95 97 96 96 96 97 96 96 97 97 97 97 97 94 92 82 67 55 54 55 56 50 52 57 53 51 53 52 48 46 43
28 30 31 24 24 19 22 33 37 47 61 67 68 70 72 75 79 86 89 91 92 92 90 90 89 93 95 95 95 97 98 98 98 98 98 97 97 98 96 92 78 73 61 54 48 43 47 45 49 48 50 49 44 46
31 31 21 23 27 32 36 42 51 58 64 64 67 70 73 76 83 85 90 87 87 88 86 86 88 90 91 92 95 97 96 97 97 98 98 98 98 98 97 97 95 97 90 82 73 62 45 32 37 43 45 45 42 41
33 25 23 32 37 42 46 49 57 62 61 67 69 72 75 78 81 87 86 83 86 87 87 93 92 94 93 94 93 94 95 96 97 98 98 98 96 97 98 98 98 97 91 81 81 80 69 64 46 39 42 42 42 37
31 23 27 33 38 45 46 49 60 62 61 65 69 75 76 78 82 83 84 85 86 81 85 90 89 89 88 91 94 95 92 95 95 98 98 98 99 98 99 98 98 99 98 84 70 68 65 74 74 47 44 45 41 37
29 24 29 32 36 37 40 47 56 60 63 68 74 78 78 77 77 80 81 83 82 79 82 85 90 93 91 90 87 84 92 93 95 93 96 98 98 97 98 99 99 98 98 87 95 80 77 84 78 61 52 48 46 42
28 28 31 32 33 33 35 38 50 63 68 71 77 75 73 76 82 83 81 79 79 84 85 84 83 83 84 90 91 87 84 83 87 85 89 92 97 96 93 97 98 98 99 97 98 89 88 81 74 68 63 57 52 52
27 32 35 33 32 34 33 32 39 55 62 62 67 70 72 75 76 77 78 78 79 79 79 87 93 87 79 83 89 86 83 69 67 69 88 95 97 94 88 90 96 95 97 98 99 89 82 79 80 79 71 68 63 57
27 31 36 36 35 37 38 37 34 38 46 50 55 62 60 60 67 74 83 79 79 70 70 69 85 84 77 77 83 77 67 67 63 69 83 85 85 85 86 80 85 92 93 95 97 97 97 97 89 96 97 91 79 80
29 29 34 37 38 37 39 39 33 35 38 44 46 52 49 50 51 50 50 52 54 58 59 68 74 80 72 62 60 70 73 61 65 78 81 76 78 80 77 72 68 77 85 91 93 96 97 97 98 98 98 99 99 88
33 30 31 35 37 35 37 39 32 35 37 39 42 46 43 41 41 36 36 37 39 45 51 59 73 59 56 54 55 59 64 74 78 78 77 70 79 79 73 67 63 62 67 73 80 85 90 94 96 97 98 98 97 97
34 37 36 37 35 34 34 33 30 33 38 38 37 39 36 36 37 36 32 34 34 41 53 53 47 53 57 57 60 66 70 75 73 74 72 64 65 64 60 59 59 58 55 61 67 70 75 75 77 86 90 92 94 96
34 40 41 41 38 34 32 35 38 34 40 45 43 41 35 33 35 34 33 32 34 41 41 45 47 48 51 57 58 55 57 57 63 62 55 57 48 48 44 43 42 44 46 44 53 59 61 64 64 70 68 71 78 85
33 36 37 41 38 34 37 37 37 38 41 43 46 45 40 36 36 35 35 35 35 39 43 43 40 42 45 48 46 46 46 46 53 56 52 48 58 51 57 46 40 37 37 39 40 52 50 52 55 61 59 62 62 62
27 30 35 35 38 34 42 35 38 41 44 45 45 51 46 46 40 40 38 39 39 38 39 42 43 44 47 45 39 38 42 41 39 46 52 54 56 54 54 47 38 40 41 41 39 47 48 43 45 46 47 47 45 48
26 27 32 33 36 41 44 42 39 45 48 43 53 47 47 52 48 48 50 44 45 45 45 47 49 46 45 46 44 39 43 36 37 42 42 39 38 41 49 46 41 42 42 47 48 39 47 48 47 41 39 39 38 33
28 28 32 34 42 38 36 41 54 47 45 56 58 56 56 60 58 50 54 56 52 49 53 52 51 52 52 50 47 47 42 39 44 49 45 43 41 51 49 50 47 46 47 43 49 50 43 40 40 43 39 37 37 32
32 27 32 40 42 40 42 39 41 48 53 60 61 61 65 62 63 53 57 63 63 62 60 62 58 56 59 58 58 58 55 49 49 48 46 45 44 48 54 51 51 51 49 52 51 51 47 43 38 45 41 40 37 34
32 34 41 40 41 36 37 42 48 51 52 56 60 65 62 61 61 55 65 63 66 66 70 69 67 71 70 68 65 66 63 56 53 51 49 50 46 47 51 55 54 54 53 52 53 54 54 52 50 51 49 44 43 42
36 44 50 50 38 39 42 49 49 50 56 66 60 60 64 64 55 69 65 62 61 67 74 76 74 72 73 74 68 63 65 61 57 53 54 56 51 51 53 58 55 57 55 51 56 56 56 55 56 56 56 50 48 52
36 32 36 32 34 40 47 44 46 47 51 57 56 58 57 54 58 60 59 61 60 62 74 77 76 79 78 73 72 68 63 59 58 57 60 57 57 55 57 59 62 62 56 55 58 57 60 57 56 55 57 52 49 57
36 30 31 41 47 50 49 48 53 54 55 52 53 58 66 76 75 67 60 64 65 59 71 77 81 80 82 79 73 72 67 62 61 60 55 47 46 46 48 49 54 56 54 55 61 61 61 59 59 57 58 60 59 59
43 47 47 46 45 49 54 52 57 66 66 69 63 53 65 80 75 72 75 64 67 68 74 83 89 87 87 78 77 70 64 61 50 45 46 47 49 51 52 54 56 53 49 60 62 63 67 70 69 67 67 68 66 63
46 47 41 50 57 62 71 88 83 69 62 60 60 57 63 66 75 82 74 68 74 74 80 81 79 74 71 69 68 63 52 46 48 51 53 59 60 59 59 62 64 64 68 72 70 72 71 70 70 70 73 75 74 70
64 72 63 51 53 52 84 84 72 85 60 53 59 64 63 68 60 71 72 75 75 79 77 76 71 68 69 68 65 62 61 52 52 52 56 62 64 65 67 68 71 75 80 83 85 82 79 76 77 74 80 81 81 78
56 52 49 52 55 64 78 80 60 54 53 53 56 68 77 73 79 77 84 82 78 74 76 69 70 71 69 64 59 53 47 54 55 58 59 64 68 71 72 74 77 79 82 87 90 92 91 88 91 89 87 85 82 80
53 55 57 60 60 60 57 52 53 52 50 56 60 66 72 76 72 71 76 71 69 64 65 66 66 65 61 56 47 45 45 50 56 60 62 66 72 73 75 80 83 83 84 85 86 90 92 92 92 92 90 87 85 83
59 57 59 52 53 53 61 60 59 50 52 59 66 76 73 72 69 70 62 62 59 59 61 60 56 51 47 43 45 47 48 56 59 63 64 65 64 66 72 80 80 80 81 82 83 86 88 92 94 93 91 88 86 84
58 61 57 60 57 55 58 61 52 54 62 67 63 66 74 67 71 66 60 57 54 54 52 46 42 41 42 43 45 50 52 56 58 58 59 58 57 58 65 67 69 72 77 82 86 87 88 87 89 92 93 92 89 87

GFSWCAN_prec_cthk_042.txt.gz
RH
53 38 34 38 33 29 27 25 23 22 28 38 58 70 75 79 81 83 84 86 89 91 94 96 97 98 98 98 98 97 92 78 79 83 92 97 98 98 98 97 96 95 97 98 85 87 98 85 83 80 77 68 66 55
37 38 34 30 27 26 25 23 28 42 58 66 69 71 75 78 80 82 82 83 84 87 87 90 95 98 98 97 97 95 97 85 77 78 82 92 99 95 92 96 85 94 96 96 95 89 83 84 89 83 69 71 70 60
36 34 30 28 29 32 38 48 59 65 66 66 67 71 75 77 78 79 78 78 79 83 82 84 86 92 95 92 93 96 96 98 94 84 81 90 91 85 87 83 83 84 84 85 75 73 74 81 82 82 74 69 71 63
36 32 28 27 31 41 48 56 60 64 65 64 66 70 71 74 78 76 73 73 78 81 83 81 85 89 92 90 90 91 94 97 97 94 86 86 90 87 86 85 79 83 80 81 74 66 65 69 78 81 80 73 67 55
33 30 25 27 37 41 43 53 60 63 63 63 67 70 72 76 76 73 74 77 82 85 84 81 81 85 89 91 90 90 91 94 97 97 98 94 86 83 79 70 70 74 75 76 73 70 72 67 75 79 78 75 69 57
31 28 24 30 34 37 46 53 60 61 62 65 66 69 71 74 75 72 74 77 82 86 84 86 87 84 83 83 86 87 88 90 91 92 94 91 82 77 77 75 78 76 77 75 71 67 66 62 64 70 75 68 73 63
30 28 25 30 31 33 36 51 59 61 62 65 67 69 71 73 72 72 73 77 81 84 87 88 91 90 87 84 82 83 84 85 86 90 92 93 91 87 86 88 82 82 78 74 68 66 59 58 54 55 63 67 70 75
29 29 27 31 30 30 33 41 58 64 64 64 67 71 73 76 74 74 75 79 85 91 91 96 92 89 86 83 82 84 83 85 88 87 85 84 84 89 93 94 92 85 76 72 69 66 64 62 60 52 46 52 55 62
29 29 30 33 32 33 32 38 51 65 67 65 66 71 75 76 76 78 81 82 82 86 94 96 92 92 90 88 80 72 70 78 84 90 90 89 89 94 93 88 85 82 76 74 69 67 65 63 58 58 55 51 50 48
29 28 31 34 34 34 36 34 38 44 54 60 63 67 71 74 73 74 78 79 81 82 87 87 90 95 83 82 88 80 72 67 71 74 80 91 95 90 86 80 79 81 81 79 74 74 76 74 73 59 61 57 54 53
29 27 29 34 35 35 36 38 33 38 43 47 55 58 58 61 60 57 59 58 62 62 65 64 75 90 91 82 84 90 87 75 68 70 74 82 84 84 80 78 74 78 86 87 87 87 90 90 84 77 69 63 57 52
29 30 28 32 35 35 34 36 35 36 40 41 44 48 52 54 53 51 50 51 55 54 56 72 79 89 88 77 79 91 94 80 69 61 68 79 73 67 62 61 61 67 78 88 94 94 94 94 90 91 80 71 63 55
29 31 30 31 34 32 31 31 33 37 39 42 46 47 52 46 51 49 55 47 47 42 49 60 66 65 64 74 64 73 69 69 60 64 74 74 67 53 48 45 39 49 61 73 85 92 93 92 92 86 84 80 78 75
29 32 33 38 38 35 29 30 32 37 39 42 44 42 44 43 44 44 44 40 36 41 45 50 53 48 53 55 51 59 62 58 64 68 74 64 54 45 45 38 35 37 44 59 67 81 87 90 90 92 91 85 80 76
28 30 35 37 36 33 27 30 31 35 38 41 41 43 42 38 39 37 34 33 38 39 46 50 52 45 50 50 50 54 54 58 64 73 71 58 53 54 49 42 35 38 40 48 54 60 71 79 85 88 91 93 95 94
25 25 30 32 34 32 30 33 34 35 38 42 44 49 47 42 39 37 36 35 36 38 45 44 44 46 48 50 50 53 60 65 63 61 54 51 56 55 47 40 36 39 42 46 48 52 54 55 68 74 82 88 87 89
25 24 25 28 29 32 33 34 35 37 39 47 48 47 46 45 43 41 40 40 38 40 45 45 47 49 46 49 54 52 56 55 52 53 54 55 54 51 47 43 40 40 44 48 49 46 48 51 49 57 68 74 78 77
23 22 23 24 28 31 34 35 36 40 47 45 48 52 52 52 48 48 46 46 41 41 46 51 49 51 55 55 57 56 54 53 50 48 56 53 56 55 54 50 47 46 47 52 54 53 51 47 44 46 45 50 60 67
24 22 22 23 28 33 34 39 39 45 46 48 49 54 56 52 52 53 50 51 48 45 45 50 55 58 59 59 58 55 49 46 45 55 57 57 57 59 60 58 54 51 51 53 55 55 53 50 46 43 40 41 40 43
24 24 24 23 29 33 39 40 38 46 43 43 47 55 57 56 54 48 50 54 47 47 46 49 54 60 61 60 59 55 56 54 56 61 59 59 62 63 66 64 61 60 58 57 54 53 50 48 48 47 43 40 38 39
26 28 24 24 30 34 33 31 36 40 40 40 45 49 52 53 53 58 59 54 45 51 54 51 52 60 64 68 66 66 65 65 63 62 59 64 63 61 63 66 65 65 65 63 60 57 55 53 51 50 48 45 46 44
28 26 28 35 35 40 38 37 39 39 41 43 49 56 66 70 68 62 68 64 59 62 63 63 66 62 67 71 74 76 78 71 66 62 61 60 61 62 61 62 63 62 63 64 63 63 62 61 57 54 52 52 50 51
30 29 34 48 49 37 30 38 47 51 52 50 58 63 70 65 73 73 67 65 69 71 73 76 74 69 67 64 67 75 76 68 61 62 60 52 50 50 49 52 53 55 56 57 58 54 55 56 59 60 56 53 56 54
32 31 38 42 40 43 40 47 60 66 74 71 68 71 70 77 87 84 83 85 85 80 80 81 80 73 70 62 68 70 66 63 61 51 42 42 43 45 48 51 54 56 58 59 61 61 59 60 58 56 57 59 59 60
27 25 26 34 42 46 50 62 65 64 57 60 59 68 78 75 83 86 84 80 76 79 86 88 80 77 67 60 60 59 62 59 51 47 44 45 46 49 50 53 57 61 60 60 62 63 65 66 66 67 65 65 63 62
42 39 40 42 49 52 68 74 74 65 66 65 72 78 83 86 94 80 80 76 81 83 85 81 73 67 59 56 52 52 54 54 52 49 51 50 50 54 57 62 62 60 59 61 64 67 70 70 70 75 76 75 73 71
38 45 60 56 55 62 78 83 68 70 69 76 83 84 86 86 78 69 72 77 75 77 75 69 59 54 52 48 54 63 66 58 54 55 59 60 62 65 65 67 68 68 68 70 72 73 75 77 77 79 82 81 78 72
44 47 50 50 57 66 74 68 68 67 74 81 74 86 89 88 86 81 77 73 76 75 69 63 62 55 56 61 62 57 58 61 66 66 68 72 76 74 71 71 71 74 73 75 77 79 77 78 79 83 84 85 83 81
50 52 55 58 59 61 63 68 71 68 68 70 81 82 77 72 70 71 69 66 60 59 62 58 58 52 57 55 53 54 58 67 66 66 71 73 74 75 75 75 77 76 76 78 78 79 82 82 82 84 87 89 88 87
46 49 53 57 66 59 59 62 63 60 62 68 67 68 67 66 62 64 61 55 52 51 50 50 53 58 57 57 59 57 56 53 55 59 63 67 70 73 76 80 81 80 77 81 78 79 85 88 88 88 90 91 88 87
55 53 59 59 63 53 57 59 64 66 67 70 73 72 73 67 63 63 59 52 48 47 43 42 45 48 46 43 41 42 44 48 51 56 58 58 60 63 67 70 75 77 81 83 83 81 80 82 86 88 87 87 86 84
50 53 55 60 56 61 65 67 58 59 63 64 65 68 70 69 72 69 60 50 41 37 35 37 37 36 37 41 42 42 45 50 52 47 41 40 42 45 51 59 64 68 73 79 80 79 84 82 81 82 83 84 85 85
51 48 47 48 53 52 47 52 62 69 66 65 70 70 70 68 65 61 55 45 38 35 35 36 38 38 40 43 41 42 44 43 41 41 41 40 40 41 44 50 56 62 66 69 74 77 79 78 77 79 80 80 81 80

GFSWCAN_prec_cthk_045.txt.gz
RH
38 34 28 29 29 34 43 50 58 64 64 64 67 71 75 76 77 77 75 75 77 80 83 90 95 96 96 99 98 96 87 78 78 84 97 98 98 99 99 98 97 98 99 98 98 99 99 89 80 78 75 69 61 58
37 30 27 27 32 42 46 50 59 62 62 63 67 70 72 73 72 69 68 71 76 79 82 84 87 94 96 97 98 97 95 86 84 91 96 96 98 98 98 97 96 95 97 97 97 96 86 88 87 81 79 68 63 60
32 29 26 28 37 41 44 51 58 60 61 63 65 68 71 71 65 65 69 71 74 77 78 83 87 92 94 95 95 95 98 94 88 88 95 97 98 98 98 97 94 95 94 97 96 86 83 77 85 83 82 76 68 60
29 29 25 28 34 39 46 54 58 60 60 62 64 67 66 62 64 67 68 70 73 75 78 81 88 92 96 96 95 92 92 93 86 91 96 96 95 91 92 93 91 91 90 95 89 84 81 77 82 85 85 78 68 58
29 29 25 28 30 32 39 51 57 59 62 62 64 66 66 63 65 70 70 75 79 79 79 78 82 90 92 93 94 95 94 94 88 84 88 92 88 84 84 85 81 80 83 83 88 88 88 81 82 84 86 89 76 65
28 29 27 28 30 30 35 46 57 60 63 64 64 67 68 64 66 70 76 81 87 86 86 87 86 87 89 92 93 90 91 92 91 90 82 82 88 83 87 85 87 84 85 86 86 78 80 77 76 84 85 84 89 78
28 28 27 30 32 32 34 46 61 62 63 66 66 67 71 71 71 71 75 77 84 85 88 91 88 84 83 82 82 89 92 89 88 92 93 94 89 89 89 87 89 90 85 83 84 76 72 72 66 66 70 77 82 86
28 28 29 31 33 34 35 36 43 57 60 63 67 70 73 73 71 73 77 78 79 84 86 95 92 88 85 80 76 70 69 72 78 85 91 94 92 93 91 87 90 87 84 82 77 79 78 72 69 61 58 65 69 82
28 27 28 32 32 34 37 37 36 43 49 54 60 66 68 69 68 70 71 71 74 75 76 86 90 96 88 85 76 78 72 66 65 74 74 81 85 90 88 79 80 83 85 78 73 74 73 69 70 67 57 54 55 58
28 28 26 30 32 35 34 37 33 38 43 47 53 57 60 62 57 53 55 53 56 55 61 71 79 88 92 86 82 84 80 67 59 60 68 68 73 70 69 68 63 72 76 78 76 70 65 62 65 68 69 65 61 60
28 29 29 28 32 33 33 33 34 38 41 44 49 53 52 54 49 52 54 53 52 55 55 64 76 90 89 81 80 79 83 73 64 61 62 64 59 54 50 48 52 60 68 71 73 76 75 71 68 66 66 73 70 65
27 29 31 29 32 32 31 30 34 38 40 43 46 47 49 52 54 53 50 52 54 50 46 54 62 69 68 71 67 71 74 69 65 60 63 66 58 45 41 35 36 37 44 53 60 64 69 68 71 78 78 79 76 73
26 30 33 36 37 37 32 28 32 37 39 40 46 46 49 47 46 45 51 48 48 42 47 50 59 57 60 58 63 66 64 63 59 60 69 60 54 46 44 40 34 34 41 43 46 52 59 70 75 82 84 85 87 81
28 28 33 35 35 34 30 26 31 36 38 42 45 48 46 43 42 44 46 42 38 43 45 53 57 55 60 60 53 57 60 56 60 59 64 57 51 49 47 39 35 39 39 46 44 41 44 56 76 84 88 92 93 91
26 26 26 32 33 33 30 29 31 35 37 40 47 48 50 46 47 41 38 37 38 42 48 58 54 47 53 54 52 53 52 57 58 64 61 55 52 48 45 39 37 40 41 44 48 45 42 42 52 76 85 84 85 92
26 24 24 27 29 30 32 32 34 36 38 42 46 46 49 50 51 47 41 40 38 40 47 48 48 49 51 51 51 55 58 63 58 58 56 56 55 52 47 43 42 43 43 45 47 52 49 44 42 48 68 79 79 78
25 24 22 22 24 28 32 31 35 38 39 42 45 48 51 54 52 49 49 47 41 41 46 47 49 50 50 53 57 59 61 58 55 54 55 57 56 58 56 53 51 50 49 50 49 51 53 49 45 44 45 54 64 71
24 23 21 22 22 27 34 35 39 38 39 38 45 48 51 52 50 51 49 51 46 43 44 45 47 50 54 55 57 57 56 54 51 50 56 57 57 56 60 60 58 58 56 55 55 54 52 48 47 44 40 39 41 51
25 24 23 22 22 28 35 38 39 38 39 43 48 51 51 54 53 50 51 51 46 38 41 46 53 56 57 56 57 56 51 53 55 61 62 65 63 58 59 61 61 62 62 60 58 56 54 53 49 48 47 43 40 39
25 25 25 24 23 29 34 38 37 38 37 40 43 48 55 59 61 64 65 66 58 54 55 59 61 62 61 60 58 53 53 57 61 66 66 62 60 60 62 64 62 63 65 66 64 61 59 56 54 52 49 47 46 45
27 27 25 23 28 32 34 32 33 36 39 40 44 53 67 74 74 77 70 71 73 76 72 68 71 72 67 65 63 61 65 67 65 63 62 58 55 53 51 50 51 53 56 57 57 57 59 60 61 58 55 51 50 52
29 28 28 32 40 45 35 35 40 52 53 53 60 67 71 80 78 78 79 78 79 78 74 78 82 85 79 71 67 66 72 66 65 54 47 42 42 44 46 49 50 53 54 56 55 54 53 52 55 60 61 59 56 57
29 29 30 39 42 38 35 44 58 69 75 75 69 73 74 81 83 83 81 84 85 88 88 85 89 87 79 72 64 68 69 68 65 52 47 42 43 46 48 50 56 58 58 59 60 58 56 55 56 56 56 59 61 62
27 27 33 37 43 45 50 60 68 70 66 65 66 71 82 81 77 78 85 81 80 82 81 87 91 77 73 60 58 59 61 58 57 55 54 52 47 50 53 56 57 58 59 60 61 63 62 62 62 62 62 63 61 60
28 28 33 37 41 46 53 61 72 68 66 66 71 82 87 80 77 75 78 73 74 77 79 74 71 68 55 51 54 52 55 62 65 64 59 60 58 57 60 63 64 62 58 61 64 68 69 66 66 70 73 72 69 66
38 43 49 52 52 58 63 61 62 68 71 73 76 74 69 69 70 73 69 64 66 77 75 71 71 55 53 52 53 62 62 63 61 60 62 66 64 63 68 71 71 71 68 68 71 75 78 78 78 80 80 78 76 73
41 45 52 52 55 63 66 68 73 73 72 76 75 69 69 68 65 61 61 61 64 62 59 62 55 55 53 49 51 59 66 63 59 62 66 69 66 68 73 76 76 76 74 74 75 78 79 81 83 83 83 82 81 78
45 49 52 56 64 70 70 74 73 68 71 76 79 81 75 68 65 62 62 60 59 57 56 62 52 53 54 59 70 68 60 62 62 62 65 64 68 76 77 79 79 81 81 79 75 76 81 83 83 86 86 86 84 85
50 52 53 57 67 72 66 71 68 71 71 77 81 76 70 63 62 63 54 47 45 52 57 54 59 61 62 61 59 54 49 50 55 58 61 64 65 67 71 76 79 87 86 80 77 75 80 85 87 89 90 92 93 92
49 53 58 61 62 61 60 62 67 66 69 69 67 72 67 63 59 59 48 40 39 42 44 47 49 50 48 44 43 40 40 42 46 50 53 55 58 61 68 75 80 80 84 83 81 79 81 85 89 90 90 89 91 91
52 54 55 57 64 68 56 55 58 66 68 66 66 68 61 61 59 56 48 39 36 36 39 41 41 39 39 41 38 38 40 43 43 42 42 44 47 52 55 61 65 74 78 81 79 81 79 78 81 84 84 84 86 86
50 51 51 56 59 56 53 55 58 62 63 58 60 61 64 65 69 60 49 40 37 36 37 37 37 38 40 40 39 40 40 38 36 35 34 34 35 39 46 55 59 63 65 67 70 71 73 74 75 75 77 80 81 80
46 48 49 52 53 53 54 54 58 63 59 59 64 64 67 70 66 58 45 37 34 33 35 36 37 38 40 38 37 36 37 37 37 37 37 38 38 38 41 44 47 49 53 56 59 62 65 66 69 71 72 72 71 70

GFSWCAN_prec_cthk_048.txt.gz
RH
33 27 24 28 33 41 42 52 56 59 61 63 66 69 68 66 65 67 66 69 73 77 79 83 86 88 89 94 98 92 77 73 92 98 98 98 98 99 99 96 87 95 91 87 89 98 98 96 83 78 76 74 71 62
30 26 24 26 31 38 43 52 56 58 59 61 63 63 63 63 62 65 66 71 73 79 82 85 88 89 86 89 97 90 81 83 97 98 98 98 98 98 97 98 98 99 97 90 90 98 97 95 94 83 79 77 72 65
30 26 25 25 29 32 36 45 55 57 59 59 60 58 59 61 61 66 68 69 73 78 81 84 86 90 88 82 81 80 74 85 95 98 98 98 98 98 98 99 99 98 95 92 94 97 95 94 92 84 82 78 72 67
29 26 26 27 29 31 36 45 53 57 59 61 61 57 60 63 63 68 72 72 74 80 84 84 86 86 85 83 79 71 78 85 89 89 94 93 98 97 97 94 91 94 94 97 97 95 95 94 88 86 82 77 74 67
28 26 26 28 31 32 34 49 54 58 60 62 64 64 65 67 69 71 75 78 79 85 90 85 86 84 85 84 84 87 85 78 82 85 89 88 89 88 89 91 92 93 97 98 98 97 96 91 88 92 83 76 73 69
27 26 27 29 31 33 33 36 46 53 58 60 63 66 67 69 69 74 78 79 81 89 96 92 88 91 91 84 79 73 86 90 89 92 91 90 90 87 92 92 94 96 93 95 92 95 91 90 90 96 91 81 75 70
25 26 28 29 30 32 34 35 37 44 48 53 57 64 68 68 65 67 72 75 77 77 84 94 95 96 98 87 86 82 74 71 79 90 93 95 93 91 90 90 94 93 95 95 93 89 89 86 83 82 81 85 82 82
24 27 27 29 30 32 33 35 33 37 44 48 54 59 60 61 60 61 63 64 69 65 70 79 84 96 96 96 90 90 85 72 64 74 74 85 92 93 91 84 93 88 84 81 84 87 79 80 79 79 76 72 71 75
24 27 27 27 30 32 32 32 30 34 40 44 50 53 55 56 56 53 54 53 59 58 65 78 88 98 93 90 90 90 89 83 70 69 68 64 68 83 77 72 80 81 84 84 78 77 83 75 72 75 74 71 66 67
25 27 29 27 29 32 30 31 32 37 39 42 48 49 51 50 49 47 49 51 50 56 60 65 75 85 80 79 80 77 80 75 71 72 74 65 59 54 50 49 57 65 68 69 67 68 71 72 71 69 71 73 72 70
25 27 30 30 30 32 31 29 32 37 38 41 44 46 45 47 48 46 48 53 54 55 52 55 61 62 65 65 68 69 72 69 66 65 71 70 62 54 50 46 40 45 52 51 52 58 64 73 76 69 68 70 69 67
24 28 33 34 35 35 35 28 30 36 38 40 43 45 48 49 49 46 44 47 51 50 47 54 57 61 62 59 65 68 72 66 65 62 62 63 61 53 50 46 44 46 50 49 42 40 43 50 67 71 70 69 69 68
26 29 31 33 34 35 34 28 29 33 37 38 43 47 47 47 44 43 46 44 46 42 44 51 59 64 60 60 63 66 65 70 64 59 64 60 56 54 49 46 43 45 53 54 52 47 42 41 48 63 67 70 74 72
27 27 27 28 31 34 33 30 29 32 36 40 46 52 48 47 52 47 45 44 41 40 43 49 59 58 56 58 54 55 59 59 62 62 64 58 55 54 49 46 44 43 46 52 52 48 44 40 41 41 54 64 66 72
26 26 24 24 29 32 31 33 32 35 39 41 47 48 51 51 53 50 47 45 41 39 45 56 51 47 49 52 52 49 48 55 59 60 59 60 60 56 52 50 48 47 47 47 51 52 46 40 36 35 34 46 63 69
25 26 26 25 24 25 29 33 34 36 39 42 45 46 50 53 54 50 51 46 41 40 44 44 46 45 49 50 48 54 54 60 55 58 54 57 60 61 61 58 57 53 53 51 51 51 51 47 41 39 36 36 46 60
24 25 24 23 23 23 26 32 34 38 39 42 41 46 52 55 56 53 52 50 44 41 43 43 45 49 51 56 57 58 59 57 53 52 53 58 60 62 64 63 61 58 59 58 56 54 52 52 47 44 41 37 38 39
24 26 25 24 23 22 27 36 39 39 38 38 41 45 49 52 61 63 63 65 56 44 45 51 55 55 58 61 61 61 60 51 48 45 54 59 60 59 55 59 63 62 63 62 60 58 57 55 51 48 45 43 43 40
24 26 26 25 25 25 31 37 40 38 34 39 44 46 48 54 67 73 74 73 73 76 69 64 68 67 68 70 68 65 53 52 51 53 58 58 54 50 51 55 58 59 61 62 64 61 60 57 56 55 51 47 47 46
26 28 26 25 25 25 31 38 40 40 40 46 45 52 59 67 75 78 77 80 78 79 82 90 83 77 75 78 72 64 59 58 59 55 52 49 44 44 43 44 47 52 54 55 55 55 56 55 56 57 57 54 51 51
30 29 27 25 28 31 38 33 34 41 51 59 65 70 72 74 73 73 77 80 79 87 91 89 89 85 91 84 75 68 65 63 65 62 52 44 37 38 43 44 46 48 54 56 56 57 57 56 53 52 56 58 58 56
30 29 28 29 36 39 34 43 56 65 68 66 67 62 66 73 69 71 75 79 84 80 84 89 95 95 89 85 74 68 67 65 69 60 50 47 44 41 42 44 48 53 60 61 62 60 60 60 58 58 58 59 58 60
30 29 28 33 39 43 47 55 63 69 65 60 62 69 78 72 64 65 67 72 75 75 81 85 89 79 79 70 60 56 60 64 59 59 61 56 51 49 48 52 56 59 62 59 58 60 62 64 64 65 64 65 63 58
28 25 29 37 46 53 59 58 63 66 62 63 62 64 64 61 56 58 64 65 67 70 75 79 81 74 64 52 50 54 57 58 62 63 59 59 61 60 59 61 61 61 61 62 66 69 71 72 70 66 70 72 70 66
28 30 38 42 44 55 58 62 65 67 67 67 65 65 61 56 58 58 63 63 67 75 78 77 69 61 50 43 46 51 55 63 77 72 58 61 63 75 67 67 67 66 65 63 65 68 72 76 77 78 79 80 78 73
37 40 46 48 55 62 66 69 70 69 69 71 73 70 61 60 60 59 62 61 63 65 64 60 56 51 46 48 52 57 66 68 62 58 60 65 66 69 69 72 77 75 70 69 70 73 78 82 84 85 84 83 83 79
37 42 46 52 62 69 69 77 80 72 77 77 71 66 68 62 62 58 58 58 56 54 54 51 50 49 50 55 66 70 55 51 54 57 56 58 73 66 69 87 97 82 75 77 76 74 78 83 85 85 86 87 84 82
41 45 50 55 64 70 73 76 75 78 76 70 69 71 68 61 60 56 51 45 44 47 48 49 50 50 48 51 47 43 43 44 46 50 59 63 61 70 82 75 77 81 84 78 74 72 77 84 87 87 88 87 89 88
43 49 54 60 64 64 68 68 67 64 68 73 69 66 61 57 57 53 42 36 37 40 42 43 43 45 42 38 37 33 34 39 45 49 52 56 62 63 67 67 76 94 86 82 74 72 76 84 88 89 89 89 90 90
45 51 56 56 62 70 62 56 60 64 67 67 65 61 58 59 59 54 42 33 31 31 33 35 36 38 38 35 32 32 36 38 40 41 41 42 45 51 56 61 75 77 79 78 74 74 75 82 87 88 86 85 89 91
52 56 54 55 59 56 51 53 57 64 64 61 60 57 58 58 57 55 44 33 31 32 33 33 33 34 34 33 32 33 33 32 32 32 32 32 33 37 43 53 60 66 68 68 70 74 74 74 76 79 78 79 82 83
55 54 52 56 55 53 50 52 56 59 61 61 61 59 60 60 61 60 48 34 31 32 33 31 31 33 34 31 32 34 33 33 34 35 36 36 37 41 44 46 48 51 53 56 60 62 65 68 69 70 72 74 74 74
55 51 49 50 53 51 49 49 52 56 60 61 62 61 60 64 65 59 48 34 30 31 30 29 30 32 31 31 33 36 36 35 35 36 37 38 40 41 42 44 46 48 50 54 57 61 64 64 65 66 66 65 65 65